Time,TemperatureF,DewpointF,PressureIn,WindDirection,WindDirectionDegrees,WindSpeedMPH,WindSpeedGustMPH,Humidity,HourlyPrecipIn,Conditions,Clouds,dailyrainin,SoftwareType,DateUTC
2013-06-03 00:01:00,52.0,45.0,30.06,SE,125,0.0,2.0,77,0.00,,,0.00,Wunderground v.1.15,2013-06-03 05:01:00,
2013-06-03 00:04:00,51.7,45.1,30.06,SE,125,0.0,2.0,78,0.00,,,0.00,Wunderground v.1.15,2013-06-03 05:04:00,
2013-06-03 00:05:00,51.7,45.1,30.06,SE,125,0.0,2.0,78,0.00,,,0.00,Wunderground v.1.15,2013-06-03 05:05:00,
2013-06-03 00:08:00,51.5,45.2,30.06,SE,125,0.0,2.0,79,0.00,,,0.00,Wunderground v.1.15,2013-06-03 05:08:00,
2013-06-03 00:09:00,51.5,45.2,30.06,SE,125,0.0,2.0,79,0.00,,,0.00,Wunderground v.1.15,2013-06-03 05:09:00,
2013-06-03 00:10:00,51.4,45.1,30.06,SE,125,0.0,2.0,79,0.00,,,0.00,Wunderground v.1.15,2013-06-03 05:10:00,
2013-06-03 00:11:00,51.4,45.1,30.06,SE,125,0.0,2.0,79,0.00,,,0.00,Wunderground v.1.15,2013-06-03 05:11:00,
2013-06-03 00:14:00,51.2,45.2,30.06,SE,125,0.0,2.0,80,0.00,,,0.00,Wunderground v.1.15,2013-06-03 05:14:00,
2013-06-03 00:16:00,51.0,45.0,30.06,SE,125,0.0,2.0,80,0.00,,,0.00,Wunderground v.1.15,2013-06-03 05:16:00,
2013-06-03 00:17:00,51.0,45.0,30.05,SE,125,0.0,0.0,80,0.00,,,0.00,weatherlink.com 1.10,2013-06-03 05:17:00,
2013-06-03 00:18:00,51.0,45.0,30.06,SE,125,0.0,2.0,80,0.00,,,0.00,Wunderground v.1.15,2013-06-03 05:18:00,
2013-06-03 00:19:00,50.9,44.9,30.06,SE,125,0.0,2.0,80,0.00,,,0.00,Wunderground v.1.15,2013-06-03 05:19:00,
2013-06-03 00:21:00,50.9,44.9,30.05,SE,125,0.0,2.0,80,0.00,,,0.00,Wunderground v.1.15,2013-06-03 05:21:00,
2013-06-03 00:22:00,50.9,45.3,30.06,SE,125,0.0,2.0,81,0.00,,,0.00,Wunderground v.1.15,2013-06-03 05:22:00,
2013-06-03 00:25:00,50.7,45.1,30.06,SE,125,0.0,2.0,81,0.00,,,0.00,Wunderground v.1.15,2013-06-03 05:25:00,
2013-06-03 00:27:00,50.7,45.1,30.06,SE,125,0.0,2.0,81,0.00,,,0.00,Wunderground v.1.15,2013-06-03 05:27:00,
2013-06-03 00:28:00,50.6,45.0,30.05,SE,125,0.0,2.0,81,0.00,,,0.00,Wunderground v.1.15,2013-06-03 05:28:00,
2013-06-03 00:30:00,50.6,45.0,30.06,SE,125,0.0,2.0,81,0.00,,,0.00,Wunderground v.1.15,2013-06-03 05:30:00,
2013-06-03 00:31:00,50.6,45.0,30.06,SE,125,0.0,2.0,81,0.00,,,0.00,Wunderground v.1.15,2013-06-03 05:31:00,
2013-06-03 00:32:00,50.5,44.9,30.05,SE,125,0.0,2.0,81,0.00,,,0.00,Wunderground v.1.15,2013-06-03 05:32:00,
2013-06-03 00:34:00,50.6,45.0,30.06,SE,125,0.0,2.0,81,0.00,,,0.00,Wunderground v.1.15,2013-06-03 05:34:00,
2013-06-03 00:35:00,50.5,44.9,30.06,SE,125,0.0,2.0,81,0.00,,,0.00,Wunderground v.1.15,2013-06-03 05:35:00,
2013-06-03 00:37:00,50.4,45.1,30.06,SE,125,0.0,2.0,82,0.00,,,0.00,Wunderground v.1.15,2013-06-03 05:37:00,
2013-06-03 00:39:00,50.4,45.1,30.06,SE,125,0.0,2.0,82,0.00,,,0.00,Wunderground v.1.15,2013-06-03 05:39:00,
2013-06-03 00:41:00,50.3,45.0,30.06,SE,125,0.0,2.0,82,0.00,,,0.00,Wunderground v.1.15,2013-06-03 05:41:00,
2013-06-03 00:42:00,50.3,45.3,30.06,SE,125,0.0,2.0,83,0.00,,,0.00,Wunderground v.1.15,2013-06-03 05:42:00,
2013-06-03 00:43:00,50.3,45.3,30.06,SE,125,0.0,2.0,83,0.00,,,0.00,Wunderground v.1.15,2013-06-03 05:43:00,
2013-06-03 00:45:00,50.3,45.3,30.06,SE,125,0.0,2.0,83,0.00,,,0.00,Wunderground v.1.15,2013-06-03 05:45:00,
2013-06-03 00:47:00,50.2,45.2,30.06,SE,125,0.0,2.0,83,0.00,,,0.00,Wunderground v.1.15,2013-06-03 05:47:00,
2013-06-03 00:51:00,50.2,45.6,30.06,SE,125,0.0,2.0,84,0.00,,,0.00,Wunderground v.1.15,2013-06-03 05:51:00,
2013-06-03 00:52:00,50.2,45.6,30.06,SE,125,0.0,2.0,84,0.00,,,0.00,Wunderground v.1.15,2013-06-03 05:52:00,
2013-06-03 00:53:00,50.2,45.6,30.05,SE,125,0.0,2.0,84,0.00,,,0.00,Wunderground v.1.15,2013-06-03 05:53:00,
2013-06-03 00:54:00,50.1,45.5,30.05,SE,125,0.0,2.0,84,0.00,,,0.00,Wunderground v.1.15,2013-06-03 05:54:00,
2013-06-03 00:55:00,50.1,45.5,30.05,SE,125,0.0,2.0,84,0.00,,,0.00,Wunderground v.1.15,2013-06-03 05:55:00,
2013-06-03 00:59:00,50.2,45.6,30.05,SE,125,0.0,2.0,84,0.00,,,0.00,Wunderground v.1.15,2013-06-03 05:59:00,
2013-06-03 01:00:00,50.2,45.6,30.06,SE,125,0.0,2.0,84,0.00,,,0.00,Wunderground v.1.15,2013-06-03 06:00:00,
2013-06-03 01:01:00,50.2,45.6,30.06,SE,125,0.0,2.0,84,0.00,,,0.00,Wunderground v.1.15,2013-06-03 06:01:00,
2013-06-03 01:02:00,50.1,45.5,30.06,SE,125,0.0,2.0,84,0.00,,,0.00,Wunderground v.1.15,2013-06-03 06:02:00,
2013-06-03 02:10:00,51.1,46.0,30.05,SE,125,0.0,0.0,83,0.00,,,0.00,weatherlink.com 1.10,2013-06-03 07:10:00,
2013-06-03 02:11:00,51.1,46.1,30.06,SE,125,0.0,2.0,83,0.00,,,0.00,Wunderground v.1.15,2013-06-03 07:11:00,
2013-06-03 02:12:00,51.2,46.2,30.06,SE,125,0.0,2.0,83,0.00,,,0.00,Wunderground v.1.15,2013-06-03 07:12:00,
2013-06-03 02:13:00,51.2,46.2,30.05,SE,125,0.0,2.0,83,0.00,,,0.00,Wunderground v.1.15,2013-06-03 07:13:00,
2013-06-03 02:15:00,51.2,46.2,30.06,SE,125,0.0,2.0,83,0.00,,,0.00,Wunderground v.1.15,2013-06-03 07:15:00,
2013-06-03 02:17:00,51.2,46.5,30.06,SE,125,0.0,2.0,84,0.00,,,0.00,Wunderground v.1.15,2013-06-03 07:17:00,
2013-06-03 02:21:00,51.2,46.5,30.06,SE,125,0.0,2.0,84,0.00,,,0.00,Wunderground v.1.15,2013-06-03 07:21:00,
2013-06-03 02:22:00,51.2,46.5,30.05,SE,125,0.0,2.0,84,0.00,,,0.00,Wunderground v.1.15,2013-06-03 07:22:00,
2013-06-03 02:24:00,51.1,46.4,30.05,SE,125,0.0,2.0,84,0.00,,,0.00,Wunderground v.1.15,2013-06-03 07:24:00,
2013-06-03 02:26:00,51.0,46.3,30.05,SE,125,0.0,2.0,84,0.00,,,0.00,Wunderground v.1.15,2013-06-03 07:26:00,
2013-06-03 02:28:00,51.0,46.3,30.05,SE,125,0.0,2.0,84,0.00,,,0.00,Wunderground v.1.15,2013-06-03 07:28:00,
2013-06-03 02:29:00,51.0,46.3,30.05,SE,125,0.0,2.0,84,0.00,,,0.00,Wunderground v.1.15,2013-06-03 07:29:00,
2013-06-03 02:31:00,51.0,46.3,30.05,SE,125,0.0,2.0,84,0.00,,,0.00,Wunderground v.1.15,2013-06-03 07:31:00,
2013-06-03 02:32:00,51.0,46.3,30.05,SE,125,0.0,2.0,84,0.00,,,0.00,Wunderground v.1.15,2013-06-03 07:32:00,
2013-06-03 02:33:00,51.0,46.3,30.05,SE,125,0.0,2.0,84,0.00,,,0.00,Wunderground v.1.15,2013-06-03 07:33:00,
2013-06-03 02:34:00,51.0,46.6,30.05,SE,125,0.0,2.0,85,0.00,,,0.00,Wunderground v.1.15,2013-06-03 07:34:00,
2013-06-03 02:36:00,51.0,46.6,30.05,SE,125,0.0,2.0,85,0.00,,,0.00,Wunderground v.1.15,2013-06-03 07:36:00,
2013-06-03 02:38:00,51.1,46.7,30.05,SE,125,0.0,2.0,85,0.00,,,0.00,Wunderground v.1.15,2013-06-03 07:38:00,
2013-06-03 02:39:00,51.2,46.8,30.05,SE,125,0.0,2.0,85,0.00,,,0.00,Wunderground v.1.15,2013-06-03 07:39:00,
2013-06-03 02:43:00,51.2,46.5,30.05,SE,125,0.0,2.0,84,0.00,,,0.00,Wunderground v.1.15,2013-06-03 07:43:00,
2013-06-03 02:45:00,51.1,46.4,30.05,SE,125,0.0,2.0,84,0.00,,,0.00,Wunderground v.1.15,2013-06-03 07:45:00,
2013-06-03 02:46:00,51.0,46.3,30.05,SE,125,0.0,2.0,84,0.00,,,0.00,Wunderground v.1.15,2013-06-03 07:46:00,
2013-06-03 02:49:00,51.0,46.6,30.05,SE,125,0.0,2.0,85,0.00,,,0.00,Wunderground v.1.15,2013-06-03 07:49:00,
2013-06-03 02:50:00,51.0,46.6,30.05,SE,125,0.0,2.0,85,0.00,,,0.00,Wunderground v.1.15,2013-06-03 07:50:00,
2013-06-03 02:51:00,51.0,46.6,30.05,SE,125,0.0,2.0,85,0.00,,,0.00,Wunderground v.1.15,2013-06-03 07:51:00,
2013-06-03 02:55:00,51.1,46.7,30.05,SE,125,0.0,2.0,85,0.00,,,0.00,Wunderground v.1.15,2013-06-03 07:55:00,
2013-06-03 02:56:00,51.1,46.7,30.04,SE,125,0.0,2.0,85,0.00,,,0.00,Wunderground v.1.15,2013-06-03 07:56:00,
2013-06-03 02:58:00,51.2,46.8,30.05,SE,125,0.0,2.0,85,0.00,,,0.00,Wunderground v.1.15,2013-06-03 07:58:00,
2013-06-03 03:02:00,51.3,46.9,30.05,SE,125,0.0,2.0,85,0.00,,,0.00,Wunderground v.1.15,2013-06-03 08:02:00,
2013-06-03 03:07:00,51.4,47.0,30.05,SE,125,0.0,2.0,85,0.00,,,0.00,Wunderground v.1.15,2013-06-03 08:07:00,
2013-06-03 03:08:00,51.4,46.7,30.05,SE,125,0.0,2.0,84,0.00,,,0.00,Wunderground v.1.15,2013-06-03 08:08:00,
2013-06-03 03:09:00,51.4,46.7,30.05,SE,125,0.0,2.0,84,0.00,,,0.00,Wunderground v.1.15,2013-06-03 08:09:00,
2013-06-03 03:14:00,51.6,46.9,30.05,SSE,153,0.0,2.0,84,0.00,,,0.00,Wunderground v.1.15,2013-06-03 08:14:00,
2013-06-03 03:15:00,51.7,46.7,30.05,SSE,165,1.0,4.0,83,0.00,,,0.00,Wunderground v.1.15,2013-06-03 08:15:00,
2013-06-03 03:16:00,51.7,46.7,30.05,South,169,1.0,4.0,83,0.00,,,0.00,Wunderground v.1.15,2013-06-03 08:16:00,
2013-06-03 03:18:00,51.9,46.9,30.05,SSE,166,1.0,4.0,83,0.00,,,0.00,Wunderground v.1.15,2013-06-03 08:18:00,
2013-06-03 03:19:00,51.9,46.6,30.05,SSE,157,1.0,4.0,82,0.00,,,0.00,Wunderground v.1.15,2013-06-03 08:19:00,
2013-06-03 03:21:00,52.1,46.8,30.05,SSE,161,2.0,2.0,82,0.00,,,0.00,Wunderground v.1.15,2013-06-03 08:21:00,
2013-06-03 03:22:00,52.2,46.9,30.05,SSE,161,2.0,3.0,82,0.00,,,0.00,Wunderground v.1.15,2013-06-03 08:22:00,
2013-06-03 03:25:00,52.4,46.7,30.06,South,182,3.0,3.0,81,0.00,,,0.00,Wunderground v.1.15,2013-06-03 08:25:00,
2013-06-03 03:26:00,52.5,46.8,30.06,South,182,3.0,3.0,81,0.00,,,0.00,Wunderground v.1.15,2013-06-03 08:26:00,
2013-06-03 03:27:00,52.6,46.6,30.06,South,182,3.0,4.0,80,0.00,,,0.00,Wunderground v.1.15,2013-06-03 08:27:00,
2013-06-03 03:28:00,52.6,46.6,30.06,South,182,3.0,4.0,80,0.00,,,0.00,Wunderground v.1.15,2013-06-03 08:28:00,
2013-06-03 03:30:00,52.7,46.7,30.06,South,184,2.0,2.0,80,0.00,,,0.00,Wunderground v.1.15,2013-06-03 08:30:00,
2013-06-03 03:32:00,52.8,46.8,30.06,South,181,2.0,4.0,80,0.00,,,0.00,Wunderground v.1.15,2013-06-03 08:32:00,
2013-06-03 03:34:00,52.8,46.8,30.06,South,182,2.0,4.0,80,0.00,,,0.00,Wunderground v.1.15,2013-06-03 08:34:00,
2013-06-03 03:35:00,52.8,46.8,30.06,South,191,2.0,4.0,80,0.00,,,0.00,Wunderground v.1.15,2013-06-03 08:35:00,
2013-06-03 03:36:00,52.8,46.5,30.06,SSW,192,2.0,4.0,79,0.00,,,0.00,Wunderground v.1.15,2013-06-03 08:36:00,
2013-06-03 03:37:00,52.9,46.6,30.06,SSW,192,2.0,4.0,79,0.00,,,0.00,Wunderground v.1.15,2013-06-03 08:37:00,
2013-06-03 03:39:00,52.9,46.6,30.06,South,187,2.0,4.0,79,0.00,,,0.00,Wunderground v.1.15,2013-06-03 08:39:00,
2013-06-03 03:42:00,52.9,46.6,30.07,South,188,1.0,2.0,79,0.00,,,0.00,Wunderground v.1.15,2013-06-03 08:42:00,
2013-06-03 03:43:00,52.9,46.6,30.07,South,188,1.0,2.0,79,0.00,,,0.00,Wunderground v.1.15,2013-06-03 08:43:00,
2013-06-03 03:45:00,52.9,46.6,30.07,South,188,1.0,2.0,79,0.00,,,0.00,Wunderground v.1.15,2013-06-03 08:45:00,
2013-06-03 03:46:00,52.9,46.6,30.07,South,188,1.0,2.0,79,0.00,,,0.00,Wunderground v.1.15,2013-06-03 08:46:00,
2013-06-03 03:52:00,52.8,46.5,30.07,South,188,1.0,2.0,79,0.00,,,0.00,Wunderground v.1.15,2013-06-03 08:52:00,
2013-06-03 03:53:00,52.8,46.5,30.07,South,188,1.0,2.0,79,0.00,,,0.00,Wunderground v.1.15,2013-06-03 08:53:00,
2013-06-03 03:54:00,52.8,46.5,30.07,South,189,1.0,2.0,79,0.00,,,0.00,Wunderground v.1.15,2013-06-03 08:54:00,
2013-06-03 03:56:00,52.8,46.5,30.06,South,189,1.0,2.0,79,0.00,,,0.00,Wunderground v.1.15,2013-06-03 08:56:00,
2013-06-03 03:59:00,52.8,46.5,30.07,South,190,1.0,2.0,79,0.00,,,0.00,Wunderground v.1.15,2013-06-03 08:59:00,
2013-06-03 04:00:00,52.8,46.5,30.07,South,190,1.0,3.0,79,0.00,,,0.00,Wunderground v.1.15,2013-06-03 09:00:00,
2013-06-03 04:03:00,52.7,46.7,30.07,South,188,2.0,3.0,80,0.00,,,0.00,Wunderground v.1.15,2013-06-03 09:03:00,
2013-06-03 04:05:00,52.6,46.6,30.07,South,188,2.0,3.0,80,0.00,,,0.00,Wunderground v.1.15,2013-06-03 09:05:00,
2013-06-03 04:07:00,52.5,46.5,30.07,South,189,2.0,3.0,80,0.00,,,0.00,Wunderground v.1.15,2013-06-03 09:07:00,
2013-06-03 04:08:00,52.5,46.5,30.07,South,189,2.0,3.0,80,0.00,,,0.00,Wunderground v.1.15,2013-06-03 09:08:00,
2013-06-03 04:09:00,52.5,46.5,30.07,South,189,2.0,3.0,80,0.00,,,0.00,Wunderground v.1.15,2013-06-03 09:09:00,
2013-06-03 04:10:00,52.5,46.5,30.07,South,188,2.0,2.0,80,0.00,,,0.00,Wunderground v.1.15,2013-06-03 09:10:00,
2013-06-03 04:14:00,52.3,46.3,30.07,South,182,2.0,2.0,80,0.00,,,0.00,Wunderground v.1.15,2013-06-03 09:14:00,
2013-06-03 04:15:00,52.2,46.2,30.07,South,182,2.0,2.0,80,0.00,,,0.00,Wunderground v.1.15,2013-06-03 09:15:00,
2013-06-03 04:16:00,52.2,46.2,30.07,South,182,2.0,2.0,80,0.00,,,0.00,Wunderground v.1.15,2013-06-03 09:16:00,
2013-06-03 04:17:00,52.2,46.2,30.07,South,182,1.0,2.0,80,0.00,,,0.00,Wunderground v.1.15,2013-06-03 09:17:00,
2013-06-03 04:18:00,52.2,46.5,30.07,South,182,1.0,2.0,81,0.00,,,0.00,Wunderground v.1.15,2013-06-03 09:18:00,
2013-06-03 04:20:00,52.1,46.4,30.07,South,182,1.0,2.0,81,0.00,,,0.00,Wunderground v.1.15,2013-06-03 09:20:00,
2013-06-03 04:21:00,52.1,46.4,30.07,South,183,1.0,2.0,81,0.00,,,0.00,Wunderground v.1.15,2013-06-03 09:21:00,
2013-06-03 04:22:00,52.0,46.3,30.07,South,183,1.0,2.0,81,0.00,,,0.00,Wunderground v.1.15,2013-06-03 09:22:00,
2013-06-03 04:23:00,51.9,46.3,30.07,South,182,1.0,2.0,81,0.00,,,0.00,Wunderground v.1.15,2013-06-03 09:23:00,
2013-06-03 04:27:00,51.8,46.2,30.07,South,184,1.0,2.0,81,0.00,,,0.00,Wunderground v.1.15,2013-06-03 09:27:00,
2013-06-03 04:28:00,51.8,46.2,30.07,South,184,1.0,2.0,81,0.00,,,0.00,Wunderground v.1.15,2013-06-03 09:28:00,
2013-06-03 04:29:00,51.8,46.2,30.07,South,186,1.0,3.0,81,0.00,,,0.00,Wunderground v.1.15,2013-06-03 09:29:00,
2013-06-03 04:30:00,51.7,46.1,30.07,SSW,200,2.0,4.0,81,0.00,,,0.00,Wunderground v.1.15,2013-06-03 09:30:00,
2013-06-03 04:35:00,51.7,46.0,30.07,SSW,209,4.0,6.0,82,0.00,,,0.00,weatherlink.com 1.10,2013-06-03 09:35:00,
2013-06-03 04:38:00,51.7,46.4,30.07,SSW,211,4.0,6.0,82,0.00,,,0.00,Wunderground v.1.15,2013-06-03 09:38:00,
2013-06-03 04:39:00,51.7,46.4,30.07,SSW,207,4.0,6.0,82,0.00,,,0.00,Wunderground v.1.15,2013-06-03 09:39:00,
2013-06-03 04:40:00,51.7,46.4,30.07,South,188,4.0,5.0,82,0.00,,,0.00,Wunderground v.1.15,2013-06-03 09:40:00,
2013-06-03 04:43:00,51.8,46.5,30.07,SSW,199,4.0,5.0,82,0.00,,,0.00,Wunderground v.1.15,2013-06-03 09:43:00,
2013-06-03 04:44:00,51.8,46.5,30.07,South,190,4.0,5.0,82,0.00,,,0.00,Wunderground v.1.15,2013-06-03 09:44:00,
2013-06-03 04:45:00,51.8,46.5,30.07,South,189,4.0,5.0,82,0.00,,,0.00,Wunderground v.1.15,2013-06-03 09:45:00,
2013-06-03 04:48:00,51.8,46.5,30.07,South,188,4.0,5.0,82,0.00,,,0.00,Wunderground v.1.15,2013-06-03 09:48:00,
2013-06-03 04:52:00,51.8,46.5,30.07,SSW,196,4.0,4.0,82,0.00,,,0.00,Wunderground v.1.15,2013-06-03 09:52:00,
2013-06-03 04:54:00,51.8,46.5,30.07,SSW,199,4.0,6.0,82,0.00,,,0.00,Wunderground v.1.15,2013-06-03 09:54:00,
2013-06-03 04:55:00,51.8,46.5,30.07,SSW,200,4.0,6.0,82,0.00,,,0.00,Wunderground v.1.15,2013-06-03 09:55:00,
2013-06-03 04:58:00,51.8,46.5,30.07,SSW,200,4.0,6.0,82,0.00,,,0.00,Wunderground v.1.15,2013-06-03 09:58:00,
2013-06-03 05:00:00,51.7,46.4,30.07,SSW,197,4.0,7.0,82,0.00,,,0.00,Wunderground v.1.15,2013-06-03 10:00:00,
2013-06-03 05:01:00,51.7,46.4,30.07,SSW,203,4.0,7.0,82,0.00,,,0.00,Wunderground v.1.15,2013-06-03 10:01:00,
2013-06-03 05:03:00,51.7,46.4,30.07,SSW,205,4.0,7.0,82,0.00,,,0.00,Wunderground v.1.15,2013-06-03 10:03:00,
2013-06-03 05:05:00,51.7,46.4,30.07,SSW,201,4.0,7.0,82,0.00,,,0.00,Wunderground v.1.15,2013-06-03 10:05:00,
2013-06-03 05:06:00,51.7,46.4,30.07,South,186,4.0,7.0,82,0.00,,,0.00,Wunderground v.1.15,2013-06-03 10:06:00,
2013-06-03 05:09:00,51.7,46.4,30.07,SSW,200,4.0,7.0,82,0.00,,,0.00,Wunderground v.1.15,2013-06-03 10:09:00,
2013-06-03 05:10:00,51.6,46.3,30.07,SSW,200,4.0,4.0,82,0.00,,,0.00,Wunderground v.1.15,2013-06-03 10:10:00,
2013-06-03 05:12:00,51.6,46.3,30.08,SSW,205,4.0,4.0,82,0.00,,,0.00,Wunderground v.1.15,2013-06-03 10:12:00,
2013-06-03 05:14:00,51.6,46.3,30.07,SSW,195,4.0,4.0,82,0.00,,,0.00,Wunderground v.1.15,2013-06-03 10:14:00,
2013-06-03 05:17:00,51.6,46.3,30.08,SSW,200,4.0,5.0,82,0.00,,,0.00,Wunderground v.1.15,2013-06-03 10:17:00,
2013-06-03 05:22:00,51.4,46.1,30.07,South,188,4.0,4.0,82,0.00,,,0.00,Wunderground v.1.15,2013-06-03 10:22:00,
2013-06-03 05:25:00,51.4,46.1,30.08,SSW,200,4.0,5.0,82,0.00,,,0.00,Wunderground v.1.15,2013-06-03 10:25:00,
2013-06-03 05:27:00,51.4,46.4,30.08,SSW,201,4.0,5.0,83,0.00,,,0.00,Wunderground v.1.15,2013-06-03 10:27:00,
2013-06-03 05:29:00,51.3,46.3,30.08,SSW,200,4.0,5.0,83,0.00,,,0.00,Wunderground v.1.15,2013-06-03 10:29:00,
2013-06-03 05:31:00,51.3,46.3,30.08,SSW,210,4.0,6.0,83,0.00,,,0.00,Wunderground v.1.15,2013-06-03 10:31:00,
2013-06-03 05:32:00,51.3,46.3,30.08,SSW,207,4.0,6.0,83,0.00,,,0.00,Wunderground v.1.15,2013-06-03 10:32:00,
2013-06-03 05:33:00,51.3,46.3,30.08,SSW,202,4.0,6.0,83,0.00,,,0.00,Wunderground v.1.15,2013-06-03 10:33:00,
2013-06-03 05:35:00,51.3,46.3,30.08,SSW,195,4.0,6.0,83,0.00,,,0.00,Wunderground v.1.15,2013-06-03 10:35:00,
2013-06-03 05:39:00,51.3,46.3,30.08,South,185,4.0,7.0,83,0.00,,,0.00,Wunderground v.1.15,2013-06-03 10:39:00,
2013-06-03 05:42:00,51.3,46.3,30.08,SSW,209,5.0,5.0,83,0.00,,,0.00,Wunderground v.1.15,2013-06-03 10:42:00,
2013-06-03 05:43:00,51.4,46.4,30.08,SSW,196,5.0,5.0,83,0.00,,,0.00,Wunderground v.1.15,2013-06-03 10:43:00,
2013-06-03 05:44:00,51.4,46.4,30.08,SSW,198,5.0,5.0,83,0.00,,,0.00,Wunderground v.1.15,2013-06-03 10:44:00,
2013-06-03 05:45:00,51.4,46.4,30.08,SSW,201,5.0,6.0,83,0.00,,,0.00,Wunderground v.1.15,2013-06-03 10:45:00,
2013-06-03 05:46:00,51.4,46.4,30.09,SSW,192,5.0,6.0,83,0.00,,,0.00,Wunderground v.1.15,2013-06-03 10:46:00,
2013-06-03 05:51:00,51.4,46.4,30.08,SSW,194,5.0,5.0,83,0.00,,,0.00,Wunderground v.1.15,2013-06-03 10:51:00,
2013-06-03 05:52:00,51.4,46.4,30.09,SSW,194,5.0,5.0,83,0.00,,,0.00,Wunderground v.1.15,2013-06-03 10:52:00,
2013-06-03 05:53:00,51.4,46.4,30.08,South,182,5.0,5.0,83,0.00,,,0.00,Wunderground v.1.15,2013-06-03 10:53:00,
2013-06-03 05:54:00,51.4,46.4,30.08,South,186,5.0,5.0,83,0.00,,,0.00,Wunderground v.1.15,2013-06-03 10:54:00,
2013-06-03 05:56:00,51.3,46.3,30.08,South,186,4.0,5.0,83,0.00,,,0.00,Wunderground v.1.15,2013-06-03 10:56:00,
2013-06-03 05:59:00,51.4,46.4,30.08,South,185,4.0,7.0,83,0.00,,,0.00,Wunderground v.1.15,2013-06-03 10:59:00,
2013-06-03 06:00:00,51.4,46.4,30.08,SSW,192,4.0,5.0,83,0.00,,,0.00,Wunderground v.1.15,2013-06-03 11:00:00,
2013-06-03 06:03:00,51.3,46.3,30.08,South,183,4.0,5.0,83,0.00,,,0.00,Wunderground v.1.15,2013-06-03 11:03:00,
2013-06-03 06:08:00,51.4,46.4,30.08,South,169,4.0,7.0,83,0.00,,,0.00,Wunderground v.1.15,2013-06-03 11:08:00,
2013-06-03 06:09:00,51.3,46.3,30.08,SSE,155,4.0,7.0,83,0.00,,,0.00,Wunderground v.1.15,2013-06-03 11:09:00,
2013-06-03 06:11:00,51.4,46.4,30.08,SSE,165,4.0,4.0,83,0.00,,,0.00,Wunderground v.1.15,2013-06-03 11:11:00,
2013-06-03 06:16:00,51.4,46.4,30.08,SE,142,3.0,4.0,83,0.00,,,0.00,Wunderground v.1.15,2013-06-03 11:16:00,
2013-06-03 06:17:00,51.3,46.3,30.08,SE,130,3.0,4.0,83,0.00,,,0.00,Wunderground v.1.15,2013-06-03 11:17:00,
2013-06-03 06:19:00,51.2,46.2,30.08,SE,124,3.0,4.0,83,0.00,,,0.00,Wunderground v.1.15,2013-06-03 11:19:00,
2013-06-03 06:21:00,51.0,46.0,30.08,SE,124,3.0,3.0,83,0.00,,,0.00,Wunderground v.1.15,2013-06-03 11:21:00,
2013-06-03 06:24:00,50.8,46.1,30.08,SE,124,3.0,3.0,84,0.00,,,0.00,Wunderground v.1.15,2013-06-03 11:24:00,
2013-06-03 06:27:00,50.8,46.1,30.08,SE,124,2.0,3.0,84,0.00,,,0.00,Wunderground v.1.15,2013-06-03 11:27:00,
2013-06-03 06:30:00,50.8,46.1,30.08,ESE,123,2.0,3.0,84,0.00,,,0.00,Wunderground v.1.15,2013-06-03 11:30:00,
2013-06-03 06:31:00,50.8,46.5,30.08,SE,124,2.0,3.0,85,0.00,,,0.00,Wunderground v.1.15,2013-06-03 11:31:00,
2013-06-03 06:32:00,50.9,46.6,30.08,SE,124,2.0,3.0,85,0.00,,,0.00,Wunderground v.1.15,2013-06-03 11:32:00,
2013-06-03 06:34:00,50.9,46.6,30.07,SE,124,2.0,3.0,85,0.00,,,0.00,Wunderground v.1.15,2013-06-03 11:34:00,
2013-06-03 06:36:00,51.0,46.6,30.07,SE,144,2.0,3.0,85,0.00,,,0.00,Wunderground v.1.15,2013-06-03 11:36:00,
2013-06-03 06:41:00,51.3,46.9,30.07,SE,144,2.0,2.0,85,0.00,,,0.00,Wunderground v.1.15,2013-06-03 11:41:00,
2013-06-03 06:45:00,51.5,47.1,30.07,SE,144,2.0,3.0,85,0.00,,,0.00,Wunderground v.1.15,2013-06-03 11:45:00,
2013-06-03 06:48:00,51.5,47.1,30.07,SE,144,1.0,3.0,85,0.00,,,0.00,Wunderground v.1.15,2013-06-03 11:48:00,
2013-06-03 06:49:00,51.6,47.2,30.07,SE,144,1.0,3.0,85,0.00,,,0.00,Wunderground v.1.15,2013-06-03 11:49:00,
2013-06-03 06:51:00,51.7,47.3,30.07,SSE,153,1.0,3.0,85,0.00,,,0.00,Wunderground v.1.15,2013-06-03 11:51:00,
2013-06-03 06:53:00,51.8,47.4,30.07,SSE,165,1.0,3.0,85,0.00,,,0.00,Wunderground v.1.15,2013-06-03 11:53:00,
2013-06-03 06:55:00,51.9,47.5,30.07,SSE,165,1.0,3.0,85,0.00,,,0.00,Wunderground v.1.15,2013-06-03 11:55:00,
2013-06-03 06:56:00,52.0,47.6,30.07,SSE,150,1.0,3.0,85,0.00,,,0.00,Wunderground v.1.15,2013-06-03 11:56:00,
2013-06-03 06:58:00,52.1,47.7,30.06,SSE,153,2.0,3.0,85,0.00,,,0.00,Wunderground v.1.15,2013-06-03 11:58:00,
2013-06-03 07:01:00,52.3,47.9,30.06,SSE,151,2.0,2.0,85,0.00,,,0.00,Wunderground v.1.15,2013-06-03 12:01:00,
2013-06-03 07:02:00,52.4,48.0,30.06,SSE,153,2.0,2.0,85,0.00,,,0.00,Wunderground v.1.15,2013-06-03 12:02:00,
2013-06-03 07:07:00,52.8,48.4,30.06,SSE,163,2.0,2.0,85,0.00,,,0.00,Wunderground v.1.15,2013-06-03 12:07:00,
2013-06-03 07:08:00,52.9,48.5,30.06,SSE,163,2.0,2.0,85,0.00,,,0.00,Wunderground v.1.15,2013-06-03 12:08:00,
2013-06-03 07:09:00,53.0,48.3,30.06,SSE,163,2.0,2.0,84,0.00,,,0.00,Wunderground v.1.15,2013-06-03 12:09:00,
2013-06-03 07:11:00,53.2,48.5,30.06,SSE,163,2.0,2.0,84,0.00,,,0.00,Wunderground v.1.15,2013-06-03 12:11:00,
2013-06-03 07:13:00,53.3,48.6,30.06,SSE,163,1.0,2.0,84,0.00,,,0.00,Wunderground v.1.15,2013-06-03 12:13:00,
2013-06-03 07:14:00,53.4,48.7,30.06,SSE,163,1.0,2.0,84,0.00,,,0.00,Wunderground v.1.15,2013-06-03 12:14:00,
2013-06-03 07:15:00,53.5,48.8,30.06,SE,130,1.0,4.0,84,0.00,,,0.00,Wunderground v.1.15,2013-06-03 12:15:00,
2013-06-03 07:22:00,53.9,48.9,30.06,SSE,156,3.0,3.0,83,0.00,,,0.00,Wunderground v.1.15,2013-06-03 12:22:00,
2013-06-03 07:23:00,54.0,49.0,30.06,South,180,3.0,3.0,83,0.00,,,0.00,Wunderground v.1.15,2013-06-03 12:23:00,
2013-06-03 07:27:00,54.2,48.8,30.06,South,171,4.0,5.0,82,0.00,,,0.00,Wunderground v.1.15,2013-06-03 12:27:00,
2013-06-03 07:28:00,54.3,48.9,30.06,South,186,4.0,5.0,82,0.00,,,0.00,Wunderground v.1.15,2013-06-03 12:28:00,
2013-06-03 07:29:00,54.4,49.0,30.06,SSW,196,4.0,6.0,82,0.00,,,0.00,Wunderground v.1.15,2013-06-03 12:29:00,
2013-06-03 07:31:00,54.5,49.1,30.06,South,171,4.0,5.0,82,0.00,,,0.00,Wunderground v.1.15,2013-06-03 12:31:00,
2013-06-03 07:32:00,54.5,49.1,30.06,South,178,4.0,5.0,82,0.00,,,0.00,Wunderground v.1.15,2013-06-03 12:32:00,
2013-06-03 07:36:00,54.8,49.1,30.07,SSE,154,4.0,5.0,81,0.00,,,0.00,Wunderground v.1.15,2013-06-03 12:36:00,
2013-06-03 07:39:00,55.1,49.4,30.06,SSE,160,4.0,5.0,81,0.00,,,0.00,Wunderground v.1.15,2013-06-03 12:39:00,
2013-06-03 07:40:00,55.1,49.4,30.07,SSE,157,4.0,4.0,81,0.00,,,0.00,Wunderground v.1.15,2013-06-03 12:40:00,
2013-06-03 07:42:00,55.3,49.6,30.07,South,175,4.0,4.0,81,0.00,,,0.00,Wunderground v.1.15,2013-06-03 12:42:00,
2013-06-03 07:46:00,55.7,49.6,30.06,SSW,192,4.0,6.0,80,0.00,,,0.00,Wunderground v.1.15,2013-06-03 12:46:00,
2013-06-03 07:48:00,55.9,49.8,30.06,South,171,4.0,6.0,80,0.00,,,0.00,Wunderground v.1.15,2013-06-03 12:48:00,
2013-06-03 07:49:00,55.9,49.8,30.06,South,169,5.0,6.0,80,0.00,,,0.00,Wunderground v.1.15,2013-06-03 12:49:00,
2013-06-03 07:50:00,56.0,49.9,30.06,South,184,5.0,5.0,80,0.00,,,0.00,Wunderground v.1.15,2013-06-03 12:50:00,
2013-06-03 07:51:00,56.1,49.7,30.06,South,175,5.0,5.0,79,0.00,,,0.00,Wunderground v.1.15,2013-06-03 12:51:00,
2013-06-03 07:54:00,56.2,49.8,30.06,South,189,5.0,7.0,79,0.00,,,0.00,Wunderground v.1.15,2013-06-03 12:54:00,
2013-06-03 07:57:00,56.4,50.0,30.06,SSE,167,6.0,7.0,79,0.00,,,0.00,Wunderground v.1.15,2013-06-03 12:57:00,
2013-06-03 07:58:00,56.5,50.1,30.06,SE,145,6.0,7.0,79,0.00,,,0.00,Wunderground v.1.15,2013-06-03 12:58:00,
2013-06-03 07:59:00,56.6,50.2,30.06,SW,231,6.0,8.0,79,0.00,,,0.00,Wunderground v.1.15,2013-06-03 12:59:00,
2013-06-03 08:02:00,56.9,50.5,30.05,SSE,148,5.0,6.0,79,0.00,,,0.00,Wunderground v.1.15,2013-06-03 13:02:00,
2013-06-03 08:03:00,57.0,50.2,30.06,SSE,155,5.0,6.0,78,0.00,,,0.00,Wunderground v.1.15,2013-06-03 13:03:00,
2013-06-03 08:06:00,57.2,50.4,30.06,South,182,4.0,6.0,78,0.00,,,0.00,Wunderground v.1.15,2013-06-03 13:06:00,
2013-06-03 08:09:00,57.4,49.9,30.05,South,180,4.0,11.0,76,0.00,,,0.00,Wunderground v.1.15,2013-06-03 13:09:00,
2013-06-03 08:10:00,57.4,49.9,30.05,SSE,159,5.0,6.0,76,0.00,,,0.00,Wunderground v.1.15,2013-06-03 13:10:00,
2013-06-03 08:12:00,57.4,49.9,30.05,South,178,5.0,6.0,76,0.00,,,0.00,Wunderground v.1.15,2013-06-03 13:12:00,
2013-06-03 08:13:00,57.5,50.0,30.05,SE,134,5.0,6.0,76,0.00,,,0.00,Wunderground v.1.15,2013-06-03 13:13:00,
2013-06-03 08:15:00,57.6,50.1,30.05,SSE,150,6.0,6.0,76,0.00,,,0.00,Wunderground v.1.15,2013-06-03 13:15:00,
2013-06-03 08:19:00,58.0,50.5,30.05,ESE,123,5.0,6.0,76,0.00,,,0.00,Wunderground v.1.15,2013-06-03 13:19:00,
2013-06-03 08:22:00,58.3,50.4,30.05,SSE,167,5.0,5.0,75,0.00,,,0.00,Wunderground v.1.15,2013-06-03 13:22:00,
2013-06-03 08:24:00,58.3,50.0,30.05,South,169,6.0,6.0,74,0.00,,,0.00,Wunderground v.1.15,2013-06-03 13:24:00,
2013-06-03 08:25:00,58.3,50.0,30.05,South,175,6.0,9.0,74,0.00,,,0.00,Wunderground v.1.15,2013-06-03 13:25:00,
2013-06-03 08:29:00,58.4,50.1,30.05,South,186,7.0,11.0,74,0.00,,,0.00,Wunderground v.1.15,2013-06-03 13:29:00,
2013-06-03 08:30:00,58.4,50.1,30.04,SSW,197,8.0,8.0,74,0.00,,,0.00,Wunderground v.1.15,2013-06-03 13:30:00,
2013-06-03 08:31:00,58.5,50.2,30.04,South,178,8.0,8.0,74,0.00,,,0.00,Wunderground v.1.15,2013-06-03 13:31:00,
2013-06-03 08:32:00,58.6,50.3,30.04,South,172,8.0,8.0,74,0.00,,,0.00,Wunderground v.1.15,2013-06-03 13:32:00,
2013-06-03 08:34:00,58.9,51.0,30.05,South,179,7.0,8.0,75,0.00,,,0.00,Wunderground v.1.15,2013-06-03 13:34:00,
2013-06-03 08:35:00,59.0,51.1,30.05,South,179,7.0,8.0,75,0.00,,,0.00,Wunderground v.1.15,2013-06-03 13:35:00,
2013-06-03 08:38:00,59.0,50.4,30.05,South,171,7.0,8.0,73,0.00,,,0.00,Wunderground v.1.15,2013-06-03 13:38:00,
2013-06-03 08:39:00,59.0,50.4,30.05,SSW,194,7.0,8.0,73,0.00,,,0.00,Wunderground v.1.15,2013-06-03 13:39:00,
2013-06-03 08:41:00,59.0,50.4,30.05,South,188,7.0,7.0,73,0.00,,,0.00,Wunderground v.1.15,2013-06-03 13:41:00,
2013-06-03 08:45:00,59.6,50.9,30.05,SE,137,7.0,7.0,73,0.00,,,0.00,Wunderground v.1.15,2013-06-03 13:45:00,
2013-06-03 08:46:00,59.7,51.0,30.04,SSE,151,7.0,7.0,73,0.00,,,0.00,Wunderground v.1.15,2013-06-03 13:46:00,
2013-06-03 08:47:00,59.8,51.5,30.04,SSE,157,7.0,7.0,74,0.00,,,0.00,Wunderground v.1.15,2013-06-03 13:47:00,
2013-06-03 08:49:00,60.0,50.9,30.05,South,174,6.0,7.0,72,0.00,,,0.00,Wunderground v.1.15,2013-06-03 13:49:00,
2013-06-03 08:53:00,60.4,51.3,30.04,SSE,167,6.0,8.0,72,0.00,,,0.00,Wunderground v.1.15,2013-06-03 13:53:00,
2013-06-03 08:54:00,60.4,51.3,30.05,SSE,150,6.0,8.0,72,0.00,,,0.00,Wunderground v.1.15,2013-06-03 13:54:00,
2013-06-03 08:56:00,60.6,51.1,30.04,South,188,6.0,10.0,71,0.00,,,0.00,Wunderground v.1.15,2013-06-03 13:56:00,
2013-06-03 08:57:00,60.7,51.2,30.05,South,173,6.0,10.0,71,0.00,,,0.00,Wunderground v.1.15,2013-06-03 13:57:00,
2013-06-03 09:02:00,60.9,51.0,30.04,South,171,7.0,11.0,70,0.00,,,0.00,Wunderground v.1.15,2013-06-03 14:02:00,
2013-06-03 09:03:00,60.9,50.7,30.04,South,175,8.0,11.0,69,0.00,,,0.00,Wunderground v.1.15,2013-06-03 14:03:00,
2013-06-03 09:04:00,60.9,50.7,30.04,South,186,8.0,11.0,69,0.00,,,0.00,Wunderground v.1.15,2013-06-03 14:04:00,
2013-06-03 09:06:00,61.1,51.2,30.04,South,178,8.0,11.0,70,0.00,,,0.00,Wunderground v.1.15,2013-06-03 14:06:00,
2013-06-03 09:08:00,61.3,51.0,30.05,SSE,167,8.0,11.0,69,0.00,,,0.00,Wunderground v.1.15,2013-06-03 14:08:00,
2013-06-03 09:13:00,61.6,51.3,30.04,South,184,8.0,10.0,69,0.00,,,0.00,Wunderground v.1.15,2013-06-03 14:13:00,
2013-06-03 09:14:00,61.7,51.0,30.04,SSW,194,8.0,10.0,68,0.00,,,0.00,Wunderground v.1.15,2013-06-03 14:14:00,
2013-06-03 09:16:00,61.9,51.2,30.04,South,184,8.0,11.0,68,0.00,,,0.00,Wunderground v.1.15,2013-06-03 14:16:00,
2013-06-03 09:18:00,62.2,51.9,30.04,SE,144,8.0,11.0,69,0.00,,,0.00,Wunderground v.1.15,2013-06-03 14:18:00,
2013-06-03 09:20:00,62.3,51.2,30.04,South,175,8.0,8.0,67,0.00,,,0.00,Wunderground v.1.15,2013-06-03 14:20:00,
2013-06-03 09:21:00,62.3,51.2,30.04,SE,144,8.0,8.0,67,0.00,,,0.00,Wunderground v.1.15,2013-06-03 14:21:00,
2013-06-03 09:25:00,62.3,50.8,30.04,SSE,148,8.0,9.0,66,0.00,,,0.00,Wunderground v.1.15,2013-06-03 14:25:00,
2013-06-03 09:26:00,62.4,51.3,30.04,South,169,8.0,13.0,67,0.00,,,0.00,Wunderground v.1.15,2013-06-03 14:26:00,
2013-06-03 09:28:00,62.3,50.0,30.04,SE,136,9.0,13.0,64,0.00,,,0.00,Wunderground v.1.15,2013-06-03 14:28:00,
2013-06-03 09:30:00,62.3,50.4,30.03,SE,128,8.0,9.0,65,0.00,,,0.00,Wunderground v.1.15,2013-06-03 14:30:00,
2013-06-03 09:32:00,62.2,50.3,30.04,SSE,161,8.0,9.0,65,0.00,,,0.00,Wunderground v.1.15,2013-06-03 14:32:00,
2013-06-03 09:33:00,62.3,50.8,30.04,South,184,8.0,9.0,66,0.00,,,0.00,Wunderground v.1.15,2013-06-03 14:33:00,
2013-06-03 09:34:00,62.3,50.8,30.04,SSW,197,8.0,9.0,66,0.00,,,0.00,Wunderground v.1.15,2013-06-03 14:34:00,
2013-06-03 09:37:00,62.6,50.7,30.04,SE,126,9.0,11.0,65,0.00,,,0.00,Wunderground v.1.15,2013-06-03 14:37:00,
2013-06-03 09:39:00,62.7,50.8,30.04,South,184,9.0,11.0,65,0.00,,,0.00,Wunderground v.1.15,2013-06-03 14:39:00,
2013-06-03 09:40:00,62.8,50.9,30.03,SSE,166,9.0,14.0,65,0.00,,,0.00,Wunderground v.1.15,2013-06-03 14:40:00,
2013-06-03 09:41:00,62.7,49.9,30.03,SSE,165,9.0,14.0,63,0.00,,,0.00,Wunderground v.1.15,2013-06-03 14:41:00,
2013-06-03 09:44:00,62.9,50.5,30.03,South,178,9.0,16.0,64,0.00,,,0.00,Wunderground v.1.15,2013-06-03 14:44:00,
2013-06-03 09:45:00,62.9,50.5,30.03,South,169,9.0,16.0,64,0.00,,,0.00,Wunderground v.1.15,2013-06-03 14:45:00,
2013-06-03 09:46:00,62.9,50.1,30.03,SSE,159,10.0,16.0,63,0.00,,,0.00,Wunderground v.1.15,2013-06-03 14:46:00,
2013-06-03 09:48:00,62.8,50.0,30.03,SSW,202,10.0,16.0,63,0.00,,,0.00,Wunderground v.1.15,2013-06-03 14:48:00,
2013-06-03 09:52:00,63.1,50.7,30.03,SSE,164,10.0,12.0,64,0.00,,,0.00,Wunderground v.1.15,2013-06-03 14:52:00,
2013-06-03 09:54:00,63.2,50.0,30.03,SE,131,10.0,12.0,62,0.00,,,0.00,Wunderground v.1.15,2013-06-03 14:54:00,
2013-06-03 09:56:00,63.1,49.9,30.03,ESE,123,10.0,12.0,62,0.00,,,0.00,Wunderground v.1.15,2013-06-03 14:56:00,
2013-06-03 09:58:00,63.1,50.3,30.03,SSE,153,10.0,12.0,63,0.00,,,0.00,Wunderground v.1.15,2013-06-03 14:58:00,
2013-06-03 10:01:00,63.1,50.3,30.03,SSE,163,10.0,14.0,63,0.00,,,0.00,Wunderground v.1.15,2013-06-03 15:01:00,
2013-06-03 10:02:00,63.1,50.3,30.03,SSE,164,10.0,14.0,63,0.00,,,0.00,Wunderground v.1.15,2013-06-03 15:02:00,
2013-06-03 10:03:00,63.1,50.7,30.03,South,173,10.0,16.0,64,0.00,,,0.00,Wunderground v.1.15,2013-06-03 15:03:00,
2013-06-03 10:08:00,63.6,51.2,30.02,SE,128,9.0,16.0,64,0.00,,,0.00,Wunderground v.1.15,2013-06-03 15:08:00,
2013-06-03 10:09:00,63.8,50.5,30.02,SSE,160,9.0,16.0,62,0.00,,,0.00,Wunderground v.1.15,2013-06-03 15:09:00,
2013-06-03 10:11:00,63.8,49.6,30.02,SSE,157,9.0,12.0,60,0.00,,,0.00,Wunderground v.1.15,2013-06-03 15:11:00,
2013-06-03 10:12:00,63.7,49.5,30.02,SE,141,10.0,13.0,60,0.00,,,0.00,Wunderground v.1.15,2013-06-03 15:12:00,
2013-06-03 10:13:00,63.6,49.5,30.02,SSE,168,10.0,15.0,60,0.00,,,0.00,Wunderground v.1.15,2013-06-03 15:13:00,
2013-06-03 10:14:00,63.4,49.3,30.02,South,176,10.0,15.0,60,0.00,,,0.00,Wunderground v.1.15,2013-06-03 15:14:00,
2013-06-03 10:18:00,63.5,49.4,30.02,South,169,11.0,15.0,60,0.00,,,0.00,Wunderground v.1.15,2013-06-03 15:18:00,
2013-06-03 10:20:00,63.5,49.8,30.02,SE,144,12.0,12.0,61,0.00,,,0.00,Wunderground v.1.15,2013-06-03 15:20:00,
2013-06-03 10:21:00,63.4,50.1,30.02,SSE,159,11.0,12.0,62,0.00,,,0.00,Wunderground v.1.15,2013-06-03 15:21:00,
2013-06-03 10:22:00,63.5,50.2,30.02,SSE,155,11.0,12.0,62,0.00,,,0.00,Wunderground v.1.15,2013-06-03 15:22:00,
2013-06-03 10:26:00,63.9,50.6,30.02,SSE,165,11.0,15.0,62,0.00,,,0.00,Wunderground v.1.15,2013-06-03 15:26:00,
2013-06-03 10:29:00,64.2,50.0,30.02,ESE,117,10.0,15.0,60,0.00,,,0.00,Wunderground v.1.15,2013-06-03 15:29:00,
2013-06-03 10:30:00,64.2,50.5,30.02,SSE,157,10.0,14.0,61,0.00,,,0.00,Wunderground v.1.15,2013-06-03 15:30:00,
2013-06-03 10:33:00,64.3,50.6,30.02,SE,137,10.0,14.0,61,0.00,,,0.00,Wunderground v.1.15,2013-06-03 15:33:00,
2013-06-03 10:34:00,64.4,50.7,30.02,SE,141,10.0,16.0,61,0.00,,,0.00,Wunderground v.1.15,2013-06-03 15:34:00,
2013-06-03 10:36:00,64.2,50.0,30.02,SE,128,11.0,19.0,60,0.00,,,0.00,Wunderground v.1.15,2013-06-03 15:36:00,
2013-06-03 10:37:00,64.1,49.9,30.02,SSE,163,11.0,19.0,60,0.00,,,0.00,Wunderground v.1.15,2013-06-03 15:37:00,
2013-06-03 10:39:00,64.1,49.9,30.02,SSE,151,12.0,19.0,60,0.00,,,0.00,Wunderground v.1.15,2013-06-03 15:39:00,
2013-06-03 10:41:00,63.9,49.7,30.02,SE,145,12.0,12.0,60,0.00,,,0.00,Wunderground v.1.15,2013-06-03 15:41:00,
2013-06-03 10:43:00,63.9,50.2,30.02,SSE,163,12.0,15.0,61,0.00,,,0.00,Wunderground v.1.15,2013-06-03 15:43:00,
2013-06-03 10:46:00,64.1,50.4,30.02,SSE,149,12.0,15.0,61,0.00,,,0.00,Wunderground v.1.15,2013-06-03 15:46:00,
2013-06-03 10:47:00,64.2,50.9,30.02,SE,141,12.0,15.0,62,0.00,,,0.00,Wunderground v.1.15,2013-06-03 15:47:00,
2013-06-03 10:48:00,64.3,50.6,30.02,South,170,12.0,15.0,61,0.00,,,0.00,Wunderground v.1.15,2013-06-03 15:48:00,
2013-06-03 10:51:00,64.5,50.7,30.02,SSE,160,11.0,11.0,61,0.00,,,0.00,Wunderground v.1.15,2013-06-03 15:51:00,
2013-06-03 10:53:00,64.7,50.9,30.02,SE,130,11.0,11.0,61,0.00,,,0.00,Wunderground v.1.15,2013-06-03 15:53:00,
2013-06-03 10:54:00,64.9,50.7,30.02,SSW,193,11.0,11.0,60,0.00,,,0.00,Wunderground v.1.15,2013-06-03 15:54:00,
2013-06-03 10:55:00,64.9,50.7,30.02,SE,137,10.0,13.0,60,0.00,,,0.00,Wunderground v.1.15,2013-06-03 15:55:00,
2013-06-03 10:56:00,64.9,50.7,30.02,South,179,10.0,13.0,60,0.00,,,0.00,Wunderground v.1.15,2013-06-03 15:56:00,
2013-06-03 11:00:00,65.1,50.4,30.01,SSE,148,11.0,14.0,59,0.00,,,0.00,Wunderground v.1.15,2013-06-03 16:00:00,
2013-06-03 11:02:00,65.1,50.9,30.01,South,173,11.0,14.0,60,0.00,,,0.00,Wunderground v.1.15,2013-06-03 16:02:00,
2013-06-03 11:03:00,65.2,51.4,30.01,ESE,115,11.0,14.0,61,0.00,,,0.00,Wunderground v.1.15,2013-06-03 16:03:00,
2013-06-03 11:05:00,65.4,51.6,30.01,SE,133,11.0,14.0,61,0.00,,,0.00,Wunderground v.1.15,2013-06-03 16:05:00,
2013-06-03 11:06:00,65.4,50.7,30.01,ESE,105,12.0,14.0,59,0.00,,,0.00,Wunderground v.1.15,2013-06-03 16:06:00,
2013-06-03 11:08:00,65.2,50.5,30.01,SSE,163,12.0,14.0,59,0.00,,,0.00,Wunderground v.1.15,2013-06-03 16:08:00,
2013-06-03 11:12:00,65.2,50.0,30.01,SE,137,11.0,16.0,58,0.00,,,0.00,Wunderground v.1.15,2013-06-03 16:12:00,
2013-06-03 11:13:00,65.2,50.0,30.01,SSE,156,11.0,16.0,58,0.00,,,0.00,Wunderground v.1.15,2013-06-03 16:13:00,
2013-06-03 11:18:00,65.6,51.3,30.01,ESE,123,10.0,16.0,60,0.00,,,0.00,Wunderground v.1.15,2013-06-03 16:18:00,
2013-06-03 11:20:00,66.0,51.3,30.01,South,171,10.0,11.0,59,0.00,,,0.00,Wunderground v.1.15,2013-06-03 16:20:00,
2013-06-03 11:23:00,65.9,51.2,30.01,ESE,105,10.0,12.0,59,0.00,,,0.00,Wunderground v.1.15,2013-06-03 16:23:00,
2013-06-03 11:24:00,65.7,51.0,30.01,ESE,111,11.0,12.0,59,0.00,,,0.00,Wunderground v.1.15,2013-06-03 16:24:00,
2013-06-03 11:25:00,65.6,50.9,30.01,SE,145,11.0,12.0,59,0.00,,,0.00,Wunderground v.1.15,2013-06-03 16:25:00,
2013-06-03 11:28:00,65.9,51.2,30.01,SE,137,11.0,12.0,59,0.00,,,0.00,Wunderground v.1.15,2013-06-03 16:28:00,
2013-06-03 11:33:00,65.7,50.5,30.01,South,180,12.0,15.0,58,0.00,,,0.00,Wunderground v.1.15,2013-06-03 16:33:00,
2013-06-03 11:35:00,65.8,50.6,30.01,South,175,11.0,15.0,58,0.00,,,0.00,Wunderground v.1.15,2013-06-03 16:35:00,
2013-06-03 11:37:00,66.1,50.9,30.01,ESE,111,11.0,15.0,58,0.00,,,0.00,Wunderground v.1.15,2013-06-03 16:37:00,
2013-06-03 11:40:00,66.5,50.8,30.00,SSE,149,10.0,12.0,57,0.00,,,0.00,Wunderground v.1.15,2013-06-03 16:40:00,
2013-06-03 11:41:00,66.4,50.7,30.00,SSE,148,11.0,12.0,57,0.00,,,0.00,Wunderground v.1.15,2013-06-03 16:41:00,
2013-06-03 11:42:00,66.4,51.2,30.00,SSE,156,10.0,12.0,58,0.00,,,0.00,Wunderground v.1.15,2013-06-03 16:42:00,
2013-06-03 11:43:00,66.3,51.1,30.00,SE,134,10.0,13.0,58,0.00,,,0.00,Wunderground v.1.15,2013-06-03 16:43:00,
2013-06-03 11:46:00,66.6,51.8,30.00,SSE,160,10.0,13.0,59,0.00,,,0.00,Wunderground v.1.15,2013-06-03 16:46:00,
2013-06-03 11:49:00,66.7,50.5,30.00,ESE,122,10.0,17.0,56,0.00,,,0.00,Wunderground v.1.15,2013-06-03 16:49:00,
2013-06-03 11:50:00,66.5,50.3,30.00,South,180,11.0,12.0,56,0.00,,,0.00,Wunderground v.1.15,2013-06-03 16:50:00,
2013-06-03 11:54:00,66.7,51.5,30.00,SE,139,11.0,18.0,58,0.00,,,0.00,Wunderground v.1.15,2013-06-03 16:54:00,
2013-06-03 11:56:00,66.7,51.0,30.00,SSE,167,11.0,18.0,57,0.00,,,0.00,Wunderground v.1.15,2013-06-03 16:56:00,
2013-06-03 11:57:00,66.7,50.5,30.00,SE,145,12.0,18.0,56,0.00,,,0.00,Wunderground v.1.15,2013-06-03 16:57:00,
2013-06-03 11:59:00,66.6,50.9,30.00,ESE,117,11.0,18.0,57,0.00,,,0.00,Wunderground v.1.15,2013-06-03 16:59:00,
2013-06-03 12:01:00,66.8,52.0,29.99,ESE,109,10.0,16.0,59,0.00,,,0.00,Wunderground v.1.15,2013-06-03 17:01:00,
2013-06-03 12:03:00,66.6,50.4,29.99,SE,141,11.0,16.0,56,0.00,,,0.00,Wunderground v.1.15,2013-06-03 17:03:00,
2013-06-03 12:04:00,66.3,50.6,29.99,ESE,117,11.0,16.0,57,0.00,,,0.00,Wunderground v.1.15,2013-06-03 17:04:00,
2013-06-03 12:10:00,66.6,51.4,29.98,East,101,12.0,16.0,58,0.00,,,0.00,Wunderground v.1.15,2013-06-03 17:10:00,
2013-06-03 12:11:00,66.7,50.5,29.99,SE,129,12.0,16.0,56,0.00,,,0.00,Wunderground v.1.15,2013-06-03 17:11:00,
2013-06-03 12:12:00,66.7,51.9,29.99,SE,134,12.0,16.0,59,0.00,,,0.00,Wunderground v.1.15,2013-06-03 17:12:00,
2013-06-03 12:13:00,66.8,51.5,29.99,SE,140,11.0,16.0,58,0.00,,,0.00,Wunderground v.1.15,2013-06-03 17:13:00,
2013-06-03 12:17:00,66.7,51.0,29.98,SE,137,11.0,16.0,57,0.00,,,0.00,Wunderground v.1.15,2013-06-03 17:17:00,
2013-06-03 12:18:00,66.7,51.0,29.98,SSE,157,11.0,16.0,57,0.00,,,0.00,Wunderground v.1.15,2013-06-03 17:18:00,
2013-06-03 12:19:00,66.7,51.0,29.98,South,174,11.0,16.0,57,0.00,,,0.00,Wunderground v.1.15,2013-06-03 17:19:00,
2013-06-03 12:20:00,66.8,50.1,29.98,SSE,159,11.0,11.0,55,0.00,,,0.00,Wunderground v.1.15,2013-06-03 17:20:00,
2013-06-03 12:24:00,67.6,52.8,29.98,SE,126,10.0,11.0,59,0.00,,,0.00,Wunderground v.1.15,2013-06-03 17:24:00,
2013-06-03 12:27:00,67.6,52.3,29.98,SSE,157,10.0,11.0,58,0.00,,,0.00,Wunderground v.1.15,2013-06-03 17:27:00,
2013-06-03 12:29:00,67.4,51.2,29.98,SE,126,10.0,15.0,56,0.00,,,0.00,Wunderground v.1.15,2013-06-03 17:29:00,
2013-06-03 12:31:00,67.3,52.0,29.98,SE,138,11.0,11.0,58,0.00,,,0.00,Wunderground v.1.15,2013-06-03 17:31:00,
2013-06-03 12:32:00,67.3,52.0,29.98,South,179,11.0,11.0,58,0.00,,,0.00,Wunderground v.1.15,2013-06-03 17:32:00,
2013-06-03 12:34:00,67.4,53.0,29.98,SSE,152,11.0,11.0,60,0.00,,,0.00,Wunderground v.1.15,2013-06-03 17:34:00,
2013-06-03 12:37:00,67.6,52.3,29.98,SE,141,10.0,16.0,58,0.00,,,0.00,Wunderground v.1.15,2013-06-03 17:37:00,
2013-06-03 12:42:00,67.7,53.3,29.97,SSE,167,10.0,12.0,60,0.00,,,0.00,Wunderground v.1.15,2013-06-03 17:42:00,
2013-06-03 12:43:00,67.9,52.6,29.97,SSW,196,10.0,12.0,58,0.00,,,0.00,Wunderground v.1.15,2013-06-03 17:43:00,
2013-06-03 12:44:00,68.1,52.3,29.97,SE,146,10.0,12.0,57,0.00,,,0.00,Wunderground v.1.15,2013-06-03 17:44:00,
2013-06-03 12:46:00,68.3,52.5,29.97,SE,128,10.0,12.0,57,0.00,,,0.00,Wunderground v.1.15,2013-06-03 17:46:00,
2013-06-03 12:49:00,68.4,52.6,29.97,SE,141,10.0,12.0,57,0.00,,,0.00,Wunderground v.1.15,2013-06-03 17:49:00,
2013-06-03 12:50:00,68.5,52.2,29.96,SE,136,10.0,18.0,56,0.00,,,0.00,Wunderground v.1.15,2013-06-03 17:50:00,
2013-06-03 12:53:00,68.2,51.4,29.96,ESE,118,11.0,18.0,55,0.00,,,0.00,Wunderground v.1.15,2013-06-03 17:53:00,
2013-06-03 12:54:00,68.2,51.4,29.96,SE,141,11.0,18.0,55,0.00,,,0.00,Wunderground v.1.15,2013-06-03 17:54:00,
2013-06-03 12:55:00,68.2,51.4,29.96,SE,128,11.0,18.0,55,0.00,,,0.00,Wunderground v.1.15,2013-06-03 17:55:00,
2013-06-03 13:00:00,68.3,52.5,29.96,SE,137,12.0,16.0,57,0.00,,,0.00,Wunderground v.1.15,2013-06-03 18:00:00,
2013-06-03 13:01:00,68.4,52.1,29.96,SE,144,11.0,16.0,56,0.00,,,0.00,Wunderground v.1.15,2013-06-03 18:01:00,
2013-06-03 13:03:00,68.6,51.8,29.96,ESE,113,11.0,16.0,55,0.00,,,0.00,Wunderground v.1.15,2013-06-03 18:03:00,
2013-06-03 13:07:00,68.4,51.6,29.96,SE,134,11.0,16.0,55,0.00,,,0.00,Wunderground v.1.15,2013-06-03 18:07:00,
2013-06-03 13:09:00,68.0,51.2,29.96,ESE,118,12.0,16.0,55,0.00,,,0.00,Wunderground v.1.15,2013-06-03 18:09:00,
2013-06-03 13:10:00,68.0,52.7,29.96,ESE,109,12.0,12.0,58,0.00,,,0.00,Wunderground v.1.15,2013-06-03 18:10:00,
2013-06-03 13:12:00,68.1,52.3,29.96,SE,135,12.0,12.0,57,0.00,,,0.00,Wunderground v.1.15,2013-06-03 18:12:00,
2013-06-03 13:13:00,68.3,52.0,29.95,SSE,164,12.0,12.0,56,0.00,,,0.00,Wunderground v.1.15,2013-06-03 18:13:00,
2013-06-03 13:15:00,68.5,52.7,29.95,SSE,153,12.0,12.0,57,0.00,,,0.00,Wunderground v.1.15,2013-06-03 18:15:00,
2013-06-03 13:16:00,68.6,51.8,29.95,SSE,159,12.0,17.0,55,0.00,,,0.00,Wunderground v.1.15,2013-06-03 18:16:00,
2013-06-03 13:18:00,68.6,52.3,29.95,ESE,111,11.0,17.0,56,0.00,,,0.00,Wunderground v.1.15,2013-06-03 18:18:00,
2013-06-03 13:20:00,68.7,51.4,29.95,SE,128,11.0,14.0,54,0.00,,,0.00,Wunderground v.1.15,2013-06-03 18:20:00,
2013-06-03 13:23:00,68.9,52.6,29.95,ESE,109,12.0,15.0,56,0.00,,,0.00,Wunderground v.1.15,2013-06-03 18:23:00,
2013-06-03 13:25:00,68.9,51.6,29.95,SE,136,12.0,15.0,54,0.00,,,0.00,Wunderground v.1.15,2013-06-03 18:25:00,
2013-06-03 13:26:00,68.9,52.1,29.95,SE,134,12.0,15.0,55,0.00,,,0.00,Wunderground v.1.15,2013-06-03 18:26:00,
2013-06-03 13:27:00,68.8,51.5,29.95,SE,136,12.0,15.0,54,0.00,,,0.00,Wunderground v.1.15,2013-06-03 18:27:00,
2013-06-03 13:28:00,68.6,51.8,29.95,SE,137,12.0,15.0,55,0.00,,,0.00,Wunderground v.1.15,2013-06-03 18:28:00,
2013-06-03 13:32:00,69.4,52.5,29.95,ESE,105,11.0,12.0,55,0.00,,,0.00,Wunderground v.1.15,2013-06-03 18:32:00,
2013-06-03 13:34:00,69.5,52.1,29.94,SE,141,11.0,14.0,54,0.00,,,0.00,Wunderground v.1.15,2013-06-03 18:34:00,
2013-06-03 13:35:00,69.4,51.5,29.94,ESE,114,11.0,15.0,53,0.00,,,0.00,Wunderground v.1.15,2013-06-03 18:35:00,
2013-06-03 13:41:00,69.2,52.8,29.94,ESE,111,12.0,12.0,56,0.00,,,0.00,Wunderground v.1.15,2013-06-03 18:41:00,
2013-06-03 13:42:00,69.3,52.4,29.94,SE,130,12.0,12.0,55,0.00,,,0.00,Wunderground v.1.15,2013-06-03 18:42:00,
2013-06-03 13:43:00,69.3,52.9,29.94,ESE,118,12.0,12.0,56,0.00,,,0.00,Wunderground v.1.15,2013-06-03 18:43:00,
2013-06-03 13:46:00,69.4,51.5,29.94,SE,129,12.0,13.0,53,0.00,,,0.00,Wunderground v.1.15,2013-06-03 18:46:00,
2013-06-03 13:47:00,69.4,51.5,29.94,South,173,12.0,13.0,53,0.00,,,0.00,Wunderground v.1.15,2013-06-03 18:47:00,
2013-06-03 13:48:00,69.3,50.9,29.94,SE,131,12.0,13.0,52,0.00,,,0.00,Wunderground v.1.15,2013-06-03 18:48:00,
2013-06-03 13:49:00,69.2,51.3,29.94,SSE,159,12.0,13.0,53,0.00,,,0.00,Wunderground v.1.15,2013-06-03 18:49:00,
2013-06-03 13:52:00,69.5,52.6,29.94,SSE,164,11.0,13.0,55,0.00,,,0.00,Wunderground v.1.15,2013-06-03 18:52:00,
2013-06-03 13:54:00,69.8,52.9,29.93,SSE,148,11.0,13.0,55,0.00,,,0.00,Wunderground v.1.15,2013-06-03 18:54:00,
2013-06-03 13:55:00,69.9,52.5,29.93,ESE,119,11.0,13.0,54,0.00,,,0.00,Wunderground v.1.15,2013-06-03 18:55:00,
2013-06-03 13:57:00,69.9,52.5,29.93,SSE,167,10.0,15.0,54,0.00,,,0.00,Wunderground v.1.15,2013-06-03 18:57:00,
2013-06-03 13:58:00,70.1,52.7,29.93,SE,145,10.0,15.0,54,0.00,,,0.00,Wunderground v.1.15,2013-06-03 18:58:00,
2013-06-03 14:01:00,70.5,53.6,29.93,ESE,113,10.0,14.0,55,0.00,,,0.00,Wunderground v.1.15,2013-06-03 19:01:00,
2013-06-03 14:04:00,70.6,53.6,29.93,SE,138,10.0,14.0,55,0.00,,,0.00,Wunderground v.1.15,2013-06-03 19:04:00,
2013-06-03 14:05:00,70.8,53.3,29.93,SE,136,10.0,14.0,54,0.00,,,0.00,Wunderground v.1.15,2013-06-03 19:05:00,
2013-06-03 14:07:00,70.8,51.8,29.93,South,169,10.0,14.0,51,0.00,,,0.00,Wunderground v.1.15,2013-06-03 19:07:00,
2013-06-03 14:11:00,71.0,52.5,29.92,SE,134,9.0,15.0,52,0.00,,,0.00,Wunderground v.1.15,2013-06-03 19:11:00,
2013-06-03 14:12:00,71.0,52.0,29.92,SSE,164,9.0,15.0,51,0.00,,,0.00,Wunderground v.1.15,2013-06-03 19:12:00,
2013-06-03 14:13:00,70.9,51.9,29.92,SSE,158,9.0,15.0,51,0.00,,,0.00,Wunderground v.1.15,2013-06-03 19:13:00,
2013-06-03 14:14:00,70.9,52.4,29.92,ESE,119,10.0,15.0,52,0.00,,,0.00,Wunderground v.1.15,2013-06-03 19:14:00,
2013-06-03 14:16:00,70.8,51.8,29.92,SE,134,10.0,15.0,51,0.00,,,0.00,Wunderground v.1.15,2013-06-03 19:16:00,
2013-06-03 14:20:00,71.1,53.6,29.92,SE,128,11.0,11.0,54,0.00,,,0.00,Wunderground v.1.15,2013-06-03 19:20:00,
2013-06-03 14:21:00,71.1,53.6,29.92,SE,132,11.0,13.0,54,0.00,,,0.00,Wunderground v.1.15,2013-06-03 19:21:00,
2013-06-03 14:23:00,71.0,52.5,29.92,SSE,155,10.0,13.0,52,0.00,,,0.00,Wunderground v.1.15,2013-06-03 19:23:00,
2013-06-03 14:24:00,71.0,52.5,29.91,SE,144,11.0,13.0,52,0.00,,,0.00,Wunderground v.1.15,2013-06-03 19:24:00,
2013-06-03 14:25:00,71.1,53.1,29.91,SSE,155,11.0,13.0,53,0.00,,,0.00,Wunderground v.1.15,2013-06-03 19:25:00,
2013-06-03 14:30:00,71.2,52.7,29.91,SE,136,10.0,22.0,52,0.00,,,0.00,Wunderground v.1.15,2013-06-03 19:30:00,
2013-06-03 14:31:00,70.9,51.9,29.91,ESE,121,10.0,22.0,51,0.00,,,0.00,Wunderground v.1.15,2013-06-03 19:31:00,
2013-06-03 14:32:00,70.7,52.2,29.91,SE,140,11.0,22.0,52,0.00,,,0.00,Wunderground v.1.15,2013-06-03 19:32:00,
2013-06-03 14:37:00,71.0,52.0,29.91,South,171,11.0,22.0,51,0.00,,,0.00,Wunderground v.1.15,2013-06-03 19:37:00,
2013-06-03 14:39:00,71.2,52.1,29.90,SSW,198,12.0,22.0,51,0.00,,,0.00,Wunderground v.1.15,2013-06-03 19:39:00,
2013-06-03 14:42:00,71.3,51.7,29.90,SSE,159,11.0,16.0,50,0.00,,,0.00,Wunderground v.1.15,2013-06-03 19:42:00,
2013-06-03 14:44:00,71.2,51.6,29.90,SE,124,12.0,16.0,50,0.00,,,0.00,Wunderground v.1.15,2013-06-03 19:44:00,
2013-06-03 14:46:00,71.1,51.0,29.90,SE,140,12.0,18.0,49,0.00,,,0.00,Wunderground v.1.15,2013-06-03 19:46:00,
2013-06-03 14:47:00,71.0,50.9,29.90,SSE,167,12.0,18.0,49,0.00,,,0.00,Wunderground v.1.15,2013-06-03 19:47:00,
2013-06-03 14:49:00,70.9,50.8,29.90,SSE,160,12.0,18.0,49,0.00,,,0.00,Wunderground v.1.15,2013-06-03 19:49:00,
2013-06-03 14:51:00,71.0,51.4,29.90,SSE,161,12.0,17.0,50,0.00,,,0.00,Wunderground v.1.15,2013-06-03 19:51:00,
2013-06-03 14:55:00,71.1,52.0,29.90,SE,128,11.0,20.0,51,0.00,,,0.00,Wunderground v.1.15,2013-06-03 19:55:00,
2013-06-03 14:56:00,71.3,52.2,29.90,ESE,107,12.0,20.0,51,0.00,,,0.00,Wunderground v.1.15,2013-06-03 19:56:00,
2013-06-03 14:59:00,71.5,51.9,29.90,SSE,150,12.0,20.0,50,0.00,,,0.00,Wunderground v.1.15,2013-06-03 19:59:00,
2013-06-03 15:01:00,71.7,51.5,29.90,SSE,162,12.0,15.0,49,0.00,,,0.00,Wunderground v.1.15,2013-06-03 20:01:00,
2013-06-03 15:02:00,71.8,52.7,29.90,ESE,121,12.0,15.0,51,0.00,,,0.00,Wunderground v.1.15,2013-06-03 20:02:00,
2013-06-03 15:06:00,72.0,51.8,29.89,SSE,161,11.0,15.0,49,0.00,,,0.00,Wunderground v.1.15,2013-06-03 20:06:00,
2013-06-03 15:08:00,72.1,52.4,29.90,SE,138,11.0,15.0,50,0.00,,,0.00,Wunderground v.1.15,2013-06-03 20:08:00,
2013-06-03 15:09:00,72.3,52.1,29.90,SE,137,11.0,15.0,49,0.00,,,0.00,Wunderground v.1.15,2013-06-03 20:09:00,
2013-06-03 15:10:00,72.4,52.2,29.89,ESE,115,11.0,12.0,49,0.00,,,0.00,Wunderground v.1.15,2013-06-03 20:10:00,
2013-06-03 15:14:00,72.1,50.8,29.89,SSE,157,11.0,24.0,47,0.00,,,0.00,Wunderground v.1.15,2013-06-03 20:14:00,
2013-06-03 15:15:00,71.9,51.7,29.89,SSW,200,12.0,24.0,49,0.00,,,0.00,Wunderground v.1.15,2013-06-03 20:15:00,
2013-06-03 15:16:00,71.9,52.2,29.89,South,184,12.0,24.0,50,0.00,,,0.00,Wunderground v.1.15,2013-06-03 20:16:00,
2013-06-03 15:17:00,71.8,51.6,29.89,SSE,148,12.0,24.0,49,0.00,,,0.00,Wunderground v.1.15,2013-06-03 20:17:00,
2013-06-03 15:18:00,71.7,52.1,29.89,SE,140,12.0,24.0,50,0.00,,,0.00,Wunderground v.1.15,2013-06-03 20:18:00,
2013-06-03 15:21:00,72.0,52.9,29.89,SE,142,11.0,13.0,51,0.00,,,0.00,Wunderground v.1.15,2013-06-03 20:21:00,
2013-06-03 15:23:00,72.5,53.3,29.89,ESE,109,11.0,13.0,51,0.00,,,0.00,Wunderground v.1.15,2013-06-03 20:23:00,
2013-06-03 15:25:00,72.8,52.0,29.89,SSE,153,10.0,13.0,48,0.00,,,0.00,Wunderground v.1.15,2013-06-03 20:25:00,
2013-06-03 15:26:00,72.9,53.7,29.89,SE,136,10.0,13.0,51,0.00,,,0.00,Wunderground v.1.15,2013-06-03 20:26:00,
2013-06-03 15:29:00,73.2,54.0,29.89,SSE,159,9.0,14.0,51,0.00,,,0.00,Wunderground v.1.15,2013-06-03 20:29:00,
2013-06-03 15:31:00,73.3,53.0,29.89,SE,141,9.0,11.0,49,0.00,,,0.00,Wunderground v.1.15,2013-06-03 20:31:00,
2013-06-03 15:32:00,73.3,51.8,29.89,SE,130,9.0,11.0,47,0.00,,,0.00,Wunderground v.1.15,2013-06-03 20:32:00,
2013-06-03 15:35:00,73.3,54.1,29.89,SE,126,9.0,16.0,51,0.00,,,0.00,Wunderground v.1.15,2013-06-03 20:35:00,
2013-06-03 15:37:00,73.1,52.2,29.88,SE,142,10.0,16.0,48,0.00,,,0.00,Wunderground v.1.15,2013-06-03 20:37:00,
2013-06-03 15:39:00,73.0,51.6,29.88,SE,137,11.0,16.0,47,0.00,,,0.00,Wunderground v.1.15,2013-06-03 20:39:00,
2013-06-03 15:40:00,72.8,51.4,29.88,SE,146,11.0,14.0,47,0.00,,,0.00,Wunderground v.1.15,2013-06-03 20:40:00,
2013-06-03 15:43:00,72.5,52.2,29.88,ESE,118,12.0,15.0,49,0.00,,,0.00,Wunderground v.1.15,2013-06-03 20:43:00,
2013-06-03 15:44:00,72.6,52.3,29.88,SE,142,12.0,15.0,49,0.00,,,0.00,Wunderground v.1.15,2013-06-03 20:44:00,
2013-06-03 15:45:00,72.7,50.7,29.88,SE,126,12.0,15.0,46,0.00,,,0.00,Wunderground v.1.15,2013-06-03 20:45:00,
2013-06-03 15:48:00,73.0,52.1,29.88,ESE,112,12.0,15.0,48,0.00,,,0.00,Wunderground v.1.15,2013-06-03 20:48:00,
2013-06-03 15:49:00,73.1,52.2,29.88,ESE,123,11.0,15.0,48,0.00,,,0.00,Wunderground v.1.15,2013-06-03 20:49:00,
2013-06-03 15:50:00,73.2,52.9,29.89,SSE,157,11.0,11.0,49,0.00,,,0.00,Wunderground v.1.15,2013-06-03 20:50:00,
2013-06-03 15:52:00,73.4,51.4,29.88,SE,132,11.0,12.0,46,0.00,,,0.00,Wunderground v.1.15,2013-06-03 20:52:00,
2013-06-03 15:54:00,73.5,50.9,29.88,SE,139,11.0,18.0,45,0.00,,,0.00,Wunderground v.1.15,2013-06-03 20:54:00,
2013-06-03 15:56:00,73.5,50.9,29.88,South,191,11.0,18.0,45,0.00,,,0.00,Wunderground v.1.15,2013-06-03 20:56:00,
2013-06-03 15:57:00,73.5,52.0,29.88,SE,125,11.0,18.0,47,0.00,,,0.00,Wunderground v.1.15,2013-06-03 20:57:00,
2013-06-03 15:58:00,73.4,50.8,29.88,SE,132,11.0,18.0,45,0.00,,,0.00,Wunderground v.1.15,2013-06-03 20:58:00,
2013-06-03 16:02:00,73.4,51.4,29.88,SE,126,12.0,13.0,46,0.00,,,0.00,Wunderground v.1.15,2013-06-03 21:02:00,
2013-06-03 16:03:00,73.4,51.9,29.88,South,178,12.0,13.0,47,0.00,,,0.00,Wunderground v.1.15,2013-06-03 21:03:00,
2013-06-03 16:04:00,73.4,51.9,29.88,SSW,198,12.0,13.0,47,0.00,,,0.00,Wunderground v.1.15,2013-06-03 21:04:00,
2013-06-03 16:06:00,73.7,51.0,29.88,South,173,11.0,13.0,45,0.00,,,0.00,Wunderground v.1.15,2013-06-03 21:06:00,
2013-06-03 16:09:00,73.7,51.6,29.88,ESE,111,11.0,14.0,46,0.00,,,0.00,Wunderground v.1.15,2013-06-03 21:09:00,
2013-06-03 16:10:00,73.7,51.6,29.88,ESE,121,11.0,11.0,46,0.00,,,0.00,Wunderground v.1.15,2013-06-03 21:10:00,
2013-06-03 16:13:00,73.5,50.9,29.88,SE,138,11.0,12.0,45,0.00,,,0.00,Wunderground v.1.15,2013-06-03 21:13:00,
2013-06-03 16:17:00,73.2,51.8,29.88,ESE,107,11.0,15.0,47,0.00,,,0.00,Wunderground v.1.15,2013-06-03 21:17:00,
2013-06-03 16:19:00,73.3,52.4,29.88,SE,142,11.0,17.0,48,0.00,,,0.00,Wunderground v.1.15,2013-06-03 21:19:00,
2013-06-03 16:20:00,73.3,51.3,29.88,SE,142,11.0,15.0,46,0.00,,,0.00,Wunderground v.1.15,2013-06-03 21:20:00,
2013-06-03 16:24:00,73.4,51.4,29.87,ESE,119,11.0,19.0,46,0.00,,,0.00,Wunderground v.1.15,2013-06-03 21:24:00,
2013-06-03 16:25:00,73.3,51.8,29.87,ESE,121,11.0,19.0,47,0.00,,,0.00,Wunderground v.1.15,2013-06-03 21:25:00,
2013-06-03 16:30:00,73.6,50.9,29.87,SE,124,11.0,11.0,45,0.00,,,0.00,Wunderground v.1.15,2013-06-03 21:30:00,
2013-06-03 16:32:00,73.8,51.7,29.87,SE,129,11.0,11.0,46,0.00,,,0.00,Wunderground v.1.15,2013-06-03 21:32:00,
2013-06-03 16:37:00,73.7,52.0,29.86,ESE,104,8.0,20.0,46,0.00,,,0.00,weatherlink.com 1.10,2013-06-03 21:37:00,
2013-06-03 16:40:00,73.8,51.7,29.87,SSE,160,11.0,11.0,46,0.00,,,0.00,Wunderground v.1.15,2013-06-03 21:40:00,
2013-06-03 16:42:00,73.8,51.7,29.86,SSE,161,11.0,13.0,46,0.00,,,0.00,Wunderground v.1.15,2013-06-03 21:42:00,
2013-06-03 16:43:00,73.8,51.7,29.86,SE,136,11.0,18.0,46,0.00,,,0.00,Wunderground v.1.15,2013-06-03 21:43:00,
2013-06-03 16:46:00,73.5,50.9,29.86,SE,141,12.0,18.0,45,0.00,,,0.00,Wunderground v.1.15,2013-06-03 21:46:00,
2013-06-03 16:48:00,73.5,52.0,29.86,SSE,156,12.0,18.0,47,0.00,,,0.00,Wunderground v.1.15,2013-06-03 21:48:00,
2013-06-03 16:49:00,73.7,51.6,29.86,SSE,148,12.0,18.0,46,0.00,,,0.00,Wunderground v.1.15,2013-06-03 21:49:00,
2013-06-03 16:50:00,73.7,50.4,29.86,SE,128,12.0,12.0,44,0.00,,,0.00,Wunderground v.1.15,2013-06-03 21:50:00,
2013-06-03 16:52:00,73.6,51.5,29.86,SE,132,12.0,14.0,46,0.00,,,0.00,Wunderground v.1.15,2013-06-03 21:52:00,
2013-06-03 16:57:00,73.8,50.5,29.86,SE,132,11.0,14.0,44,0.00,,,0.00,Wunderground v.1.15,2013-06-03 21:57:00,
2013-06-03 17:01:00,74.1,50.8,29.86,South,170,12.0,15.0,44,0.00,,,0.00,Wunderground v.1.15,2013-06-03 22:01:00,
2013-06-03 17:03:00,74.2,51.5,29.86,South,187,11.0,15.0,45,0.00,,,0.00,Wunderground v.1.15,2013-06-03 22:03:00,
2013-06-03 17:10:00,74.2,51.5,29.87,SE,136,11.0,11.0,45,0.00,,,0.00,Wunderground v.1.15,2013-06-03 22:10:00,
2013-06-03 17:11:00,74.2,50.9,29.87,SSW,195,11.0,13.0,44,0.00,,,0.00,Wunderground v.1.15,2013-06-03 22:11:00,
2013-06-03 17:12:00,74.2,50.9,29.86,SSE,163,11.0,13.0,44,0.00,,,0.00,Wunderground v.1.15,2013-06-03 22:12:00,
2013-06-03 17:14:00,74.1,51.4,29.87,SE,134,11.0,13.0,45,0.00,,,0.00,Wunderground v.1.15,2013-06-03 22:14:00,
2013-06-03 17:15:00,74.1,50.8,29.87,South,180,11.0,13.0,44,0.00,,,0.00,Wunderground v.1.15,2013-06-03 22:15:00,
2013-06-03 17:16:00,74.0,51.3,29.87,South,174,11.0,13.0,45,0.00,,,0.00,Wunderground v.1.15,2013-06-03 22:16:00,
2013-06-03 17:19:00,74.1,52.0,29.86,SE,133,11.0,14.0,46,0.00,,,0.00,Wunderground v.1.15,2013-06-03 22:19:00,
2013-06-03 17:20:00,74.2,51.5,29.86,SSW,213,11.0,11.0,45,0.00,,,0.00,Wunderground v.1.15,2013-06-03 22:20:00,
2013-06-03 17:21:00,74.2,51.5,29.86,South,173,11.0,12.0,45,0.00,,,0.00,Wunderground v.1.15,2013-06-03 22:21:00,
2013-06-03 17:22:00,74.3,51.6,29.86,SSE,158,11.0,14.0,45,0.00,,,0.00,Wunderground v.1.15,2013-06-03 22:22:00,
2013-06-03 17:27:00,74.5,51.8,29.86,SSE,148,11.0,16.0,45,0.00,,,0.00,Wunderground v.1.15,2013-06-03 22:27:00,
2013-06-03 17:28:00,74.4,52.3,29.86,South,184,11.0,16.0,46,0.00,,,0.00,Wunderground v.1.15,2013-06-03 22:28:00,
2013-06-03 17:30:00,74.4,51.7,29.86,SE,134,11.0,11.0,45,0.00,,,0.00,Wunderground v.1.15,2013-06-03 22:30:00,
2013-06-03 17:33:00,74.5,51.2,29.86,ESE,123,11.0,16.0,44,0.00,,,0.00,Wunderground v.1.15,2013-06-03 22:33:00,
2013-06-03 17:35:00,74.4,51.1,29.86,SSE,153,10.0,18.0,44,0.00,,,0.00,Wunderground v.1.15,2013-06-03 22:35:00,
2013-06-03 17:36:00,74.3,51.0,29.86,South,178,11.0,18.0,44,0.00,,,0.00,Wunderground v.1.15,2013-06-03 22:36:00,
2013-06-03 17:38:00,74.2,50.9,29.86,SSE,155,11.0,18.0,44,0.00,,,0.00,Wunderground v.1.15,2013-06-03 22:38:00,
2013-06-03 17:39:00,74.2,51.5,29.86,SSE,166,11.0,18.0,45,0.00,,,0.00,Wunderground v.1.15,2013-06-03 22:39:00,
2013-06-03 17:43:00,74.1,50.2,29.86,SSE,153,12.0,12.0,43,0.00,,,0.00,Wunderground v.1.15,2013-06-03 22:43:00,
2013-06-03 17:44:00,74.1,50.8,29.85,SSW,202,12.0,16.0,44,0.00,,,0.00,Wunderground v.1.15,2013-06-03 22:44:00,
2013-06-03 17:45:00,74.1,50.2,29.86,SE,137,12.0,16.0,43,0.00,,,0.00,Wunderground v.1.15,2013-06-03 22:45:00,
2013-06-03 17:49:00,74.2,50.3,29.86,SE,126,11.0,19.0,43,0.00,,,0.00,Wunderground v.1.15,2013-06-03 22:49:00,
2013-06-03 17:50:00,74.1,50.2,29.86,SSE,151,12.0,17.0,43,0.00,,,0.00,Wunderground v.1.15,2013-06-03 22:50:00,
2013-06-03 17:51:00,74.0,50.1,29.86,SE,145,12.0,17.0,43,0.00,,,0.00,Wunderground v.1.15,2013-06-03 22:51:00,
2013-06-03 17:53:00,74.0,50.7,29.86,SE,140,12.0,17.0,44,0.00,,,0.00,Wunderground v.1.15,2013-06-03 22:53:00,
2013-06-03 17:55:00,73.9,50.6,29.86,SE,128,11.0,17.0,44,0.00,,,0.00,Wunderground v.1.15,2013-06-03 22:55:00,
2013-06-03 17:56:00,73.9,51.2,29.86,SSE,159,11.0,17.0,45,0.00,,,0.00,Wunderground v.1.15,2013-06-03 22:56:00,
2013-06-03 17:57:00,73.9,51.2,29.87,SE,125,11.0,17.0,45,0.00,,,0.00,Wunderground v.1.15,2013-06-03 22:57:00,
2013-06-03 18:00:00,74.0,50.7,29.86,SSE,165,10.0,10.0,44,0.00,,,0.00,Wunderground v.1.15,2013-06-03 23:00:00,
2013-06-03 18:02:00,73.9,51.2,29.87,SSE,157,10.0,10.0,45,0.00,,,0.00,Wunderground v.1.15,2013-06-03 23:02:00,
2013-06-03 18:04:00,74.0,50.1,29.87,SE,138,10.0,12.0,43,0.00,,,0.00,Wunderground v.1.15,2013-06-03 23:04:00,
2013-06-03 18:05:00,74.0,49.4,29.87,South,185,10.0,15.0,42,0.00,,,0.00,Wunderground v.1.15,2013-06-03 23:05:00,
2013-06-03 18:06:00,74.1,50.2,29.87,SSE,163,11.0,15.0,43,0.00,,,0.00,Wunderground v.1.15,2013-06-03 23:06:00,
2013-06-03 18:07:00,74.1,50.8,29.86,SE,141,10.0,15.0,44,0.00,,,0.00,Wunderground v.1.15,2013-06-03 23:07:00,
2013-06-03 18:11:00,74.3,51.6,29.86,SE,141,9.0,9.0,45,0.00,,,0.00,Wunderground v.1.15,2013-06-03 23:11:00,
2013-06-03 18:13:00,74.4,51.7,29.86,SSE,150,8.0,10.0,45,0.00,,,0.00,Wunderground v.1.15,2013-06-03 23:13:00,
2013-06-03 18:14:00,74.4,51.1,29.86,South,188,8.0,15.0,44,0.00,,,0.00,Wunderground v.1.15,2013-06-03 23:14:00,
2013-06-03 18:15:00,74.5,50.5,29.86,South,175,8.0,16.0,43,0.00,,,0.00,Wunderground v.1.15,2013-06-03 23:15:00,
2013-06-03 18:17:00,74.3,50.4,29.86,SE,141,8.0,16.0,43,0.00,,,0.00,Wunderground v.1.15,2013-06-03 23:17:00,
2013-06-03 18:21:00,74.2,51.5,29.86,SE,136,9.0,9.0,45,0.00,,,0.00,Wunderground v.1.15,2013-06-03 23:21:00,
2013-06-03 18:23:00,74.2,50.9,29.86,South,173,9.0,10.0,44,0.00,,,0.00,Wunderground v.1.15,2013-06-03 23:23:00,
2013-06-03 18:25:00,74.1,50.2,29.86,SSE,160,9.0,14.0,43,0.00,,,0.00,Wunderground v.1.15,2013-06-03 23:25:00,
2013-06-03 18:28:00,74.0,50.7,29.86,SSE,158,10.0,18.0,44,0.00,,,0.00,Wunderground v.1.15,2013-06-03 23:28:00,
2013-06-03 18:29:00,74.0,50.7,29.86,South,171,10.0,18.0,44,0.00,,,0.00,Wunderground v.1.15,2013-06-03 23:29:00,
2013-06-03 18:32:00,74.0,52.5,29.86,SE,136,10.0,10.0,47,0.00,,,0.00,Wunderground v.1.15,2013-06-03 23:32:00,
2013-06-03 18:33:00,74.1,52.0,29.86,SE,128,10.0,13.0,46,0.00,,,0.00,Wunderground v.1.15,2013-06-03 23:33:00,
2013-06-03 18:38:00,74.0,51.0,29.86,South,177,8.0,14.0,45,0.00,,,0.00,weatherlink.com 1.10,2013-06-03 23:38:00,
2013-06-03 18:39:00,74.0,50.7,29.86,SSE,148,9.0,13.0,44,0.00,,,0.00,Wunderground v.1.15,2013-06-03 23:39:00,
2013-06-03 18:40:00,73.9,50.6,29.86,SE,145,9.0,9.0,44,0.00,,,0.00,Wunderground v.1.15,2013-06-03 23:40:00,
2013-06-03 18:46:00,73.6,50.3,29.86,South,173,10.0,14.0,44,0.00,,,0.00,Wunderground v.1.15,2013-06-03 23:46:00,
2013-06-03 18:47:00,73.6,50.3,29.86,ESE,122,10.0,14.0,44,0.00,,,0.00,Wunderground v.1.15,2013-06-03 23:47:00,
2013-06-03 18:48:00,73.6,50.3,29.86,SE,137,10.0,15.0,44,0.00,,,0.00,Wunderground v.1.15,2013-06-03 23:48:00,
2013-06-03 18:49:00,73.5,50.9,29.86,ESE,123,10.0,15.0,45,0.00,,,0.00,Wunderground v.1.15,2013-06-03 23:49:00,
2013-06-03 18:51:00,73.4,50.2,29.85,SE,126,10.0,16.0,44,0.00,,,0.00,Wunderground v.1.15,2013-06-03 23:51:00,
2013-06-03 18:54:00,73.3,50.7,29.85,SE,144,10.0,16.0,45,0.00,,,0.00,Wunderground v.1.15,2013-06-03 23:54:00,
2013-06-03 18:55:00,73.3,50.7,29.85,SE,145,10.0,16.0,45,0.00,,,0.00,Wunderground v.1.15,2013-06-03 23:55:00,
2013-06-03 18:56:00,73.3,50.1,29.85,East,98,10.0,16.0,44,0.00,,,0.00,Wunderground v.1.15,2013-06-03 23:56:00,
2013-06-03 18:57:00,73.3,51.3,29.85,ESE,121,10.0,16.0,46,0.00,,,0.00,Wunderground v.1.15,2013-06-03 23:57:00,
2013-06-03 18:59:00,73.2,50.6,29.85,South,173,11.0,17.0,45,0.00,,,0.00,Wunderground v.1.15,2013-06-03 23:59:00,
2013-06-03 19:00:00,73.1,49.9,29.85,SSE,158,11.0,11.0,44,0.00,,,0.00,Wunderground v.1.15,2013-06-04 00:00:00,
2013-06-03 19:01:00,73.1,50.5,29.85,SSE,149,11.0,11.0,45,0.00,,,0.00,Wunderground v.1.15,2013-06-04 00:01:00,
2013-06-03 19:06:00,73.0,50.4,29.85,South,178,12.0,13.0,45,0.00,,,0.00,Wunderground v.1.15,2013-06-04 00:06:00,
2013-06-03 19:07:00,73.0,50.4,29.85,SE,134,11.0,13.0,45,0.00,,,0.00,Wunderground v.1.15,2013-06-04 00:07:00,
2013-06-03 19:09:00,72.9,50.3,29.85,SE,142,11.0,17.0,45,0.00,,,0.00,Wunderground v.1.15,2013-06-04 00:09:00,
2013-06-03 19:13:00,72.9,50.3,29.85,South,180,11.0,18.0,45,0.00,,,0.00,Wunderground v.1.15,2013-06-04 00:13:00,
2013-06-03 19:14:00,72.9,50.9,29.85,SE,133,11.0,18.0,46,0.00,,,0.00,Wunderground v.1.15,2013-06-04 00:14:00,
2013-06-03 19:15:00,72.9,50.3,29.85,SE,137,11.0,18.0,45,0.00,,,0.00,Wunderground v.1.15,2013-06-04 00:15:00,
2013-06-03 19:16:00,72.9,50.9,29.85,SE,144,11.0,18.0,46,0.00,,,0.00,Wunderground v.1.15,2013-06-04 00:16:00,
2013-06-03 19:19:00,72.8,51.4,29.85,SSE,164,10.0,18.0,47,0.00,,,0.00,Wunderground v.1.15,2013-06-04 00:19:00,
2013-06-03 19:21:00,72.8,51.4,29.85,SE,130,9.0,9.0,47,0.00,,,0.00,Wunderground v.1.15,2013-06-04 00:21:00,
2013-06-03 19:25:00,72.7,51.9,29.85,ESE,123,9.0,16.0,48,0.00,,,0.00,Wunderground v.1.15,2013-06-04 00:25:00,
2013-06-03 19:26:00,72.7,51.9,29.85,SE,130,8.0,16.0,48,0.00,,,0.00,Wunderground v.1.15,2013-06-04 00:26:00,
2013-06-03 19:27:00,72.6,51.8,29.85,ESE,119,8.0,16.0,48,0.00,,,0.00,Wunderground v.1.15,2013-06-04 00:27:00,
2013-06-03 19:30:00,72.5,51.7,29.85,ESE,115,9.0,10.0,48,0.00,,,0.00,Wunderground v.1.15,2013-06-04 00:30:00,
2013-06-03 19:32:00,72.4,51.0,29.85,ESE,111,9.0,11.0,47,0.00,,,0.00,Wunderground v.1.15,2013-06-04 00:32:00,
2013-06-03 19:34:00,72.4,51.6,29.85,South,175,9.0,11.0,48,0.00,,,0.00,Wunderground v.1.15,2013-06-04 00:34:00,
2013-06-03 19:36:00,72.3,51.5,29.85,SE,139,10.0,17.0,48,0.00,,,0.00,Wunderground v.1.15,2013-06-04 00:36:00,
2013-06-03 19:40:00,72.2,52.0,29.86,ESE,117,10.0,10.0,49,0.00,,,0.00,Wunderground v.1.15,2013-06-04 00:40:00,
2013-06-03 19:42:00,72.2,51.4,29.86,SE,138,10.0,10.0,48,0.00,,,0.00,Wunderground v.1.15,2013-06-04 00:42:00,
2013-06-03 19:44:00,72.1,51.3,29.86,SSE,159,9.0,13.0,48,0.00,,,0.00,Wunderground v.1.15,2013-06-04 00:44:00,
2013-06-03 19:47:00,72.0,51.2,29.86,SE,136,10.0,13.0,48,0.00,,,0.00,Wunderground v.1.15,2013-06-04 00:47:00,
2013-06-03 19:48:00,72.0,51.8,29.86,ESE,121,10.0,16.0,49,0.00,,,0.00,Wunderground v.1.15,2013-06-04 00:48:00,
2013-06-03 19:49:00,72.0,51.2,29.86,SE,137,10.0,16.0,48,0.00,,,0.00,Wunderground v.1.15,2013-06-04 00:49:00,
2013-06-03 19:50:00,72.0,51.8,29.86,SE,140,10.0,13.0,49,0.00,,,0.00,Wunderground v.1.15,2013-06-04 00:50:00,
2013-06-03 19:56:00,71.8,51.6,29.86,SSE,159,10.0,14.0,49,0.00,,,0.00,Wunderground v.1.15,2013-06-04 00:56:00,
2013-06-03 19:57:00,71.7,51.5,29.87,ESE,123,10.0,14.0,49,0.00,,,0.00,Wunderground v.1.15,2013-06-04 00:57:00,
2013-06-03 20:00:00,71.7,51.5,29.87,SSE,162,10.0,10.0,49,0.00,,,0.00,Wunderground v.1.15,2013-06-04 01:00:00,
2013-06-03 20:01:00,71.7,52.1,29.87,SE,132,9.0,10.0,50,0.00,,,0.00,Wunderground v.1.15,2013-06-04 01:01:00,
2013-06-03 20:02:00,71.7,52.1,29.87,SE,128,9.0,10.0,50,0.00,,,0.00,Wunderground v.1.15,2013-06-04 01:02:00,
2013-06-03 20:03:00,71.6,52.0,29.87,SE,137,9.0,10.0,50,0.00,,,0.00,Wunderground v.1.15,2013-06-04 01:03:00,
2013-06-03 20:05:00,71.5,51.9,29.87,SSE,150,9.0,11.0,50,0.00,,,0.00,Wunderground v.1.15,2013-06-04 01:05:00,
2013-06-03 20:07:00,71.5,51.9,29.87,SE,141,9.0,11.0,50,0.00,,,0.00,Wunderground v.1.15,2013-06-04 01:07:00,
2013-06-03 20:08:00,71.5,51.9,29.86,East,94,9.0,11.0,50,0.00,,,0.00,Wunderground v.1.15,2013-06-04 01:08:00,
2013-06-03 20:10:00,71.4,52.3,29.86,SSE,157,9.0,9.0,51,0.00,,,0.00,Wunderground v.1.15,2013-06-04 01:10:00,
2013-06-03 20:12:00,71.3,52.2,29.86,SE,139,9.0,17.0,51,0.00,,,0.00,Wunderground v.1.15,2013-06-04 01:12:00,
2013-06-03 20:16:00,71.3,52.8,29.86,ESE,123,9.0,17.0,52,0.00,,,0.00,Wunderground v.1.15,2013-06-04 01:16:00,
2013-06-03 20:18:00,71.1,52.6,29.86,SE,143,9.0,17.0,52,0.00,,,0.00,Wunderground v.1.15,2013-06-04 01:18:00,
2013-06-03 20:19:00,71.1,52.6,29.86,SSE,153,8.0,17.0,52,0.00,,,0.00,Wunderground v.1.15,2013-06-04 01:19:00,
2013-06-03 20:21:00,71.0,53.0,29.86,SE,126,8.0,8.0,53,0.00,,,0.00,Wunderground v.1.15,2013-06-04 01:21:00,
2013-06-03 20:23:00,70.8,52.8,29.86,SSE,152,8.0,8.0,53,0.00,,,0.00,Wunderground v.1.15,2013-06-04 01:23:00,
2013-06-03 20:27:00,70.6,52.6,29.86,ESE,114,7.0,14.0,53,0.00,,,0.00,Wunderground v.1.15,2013-06-04 01:27:00,
2013-06-03 20:28:00,70.7,52.7,29.87,SSE,159,8.0,14.0,53,0.00,,,0.00,Wunderground v.1.15,2013-06-04 01:28:00,
2013-06-03 20:31:00,70.7,52.7,29.87,South,182,8.0,12.0,53,0.00,,,0.00,Wunderground v.1.15,2013-06-04 01:31:00,
2013-06-03 20:33:00,70.6,52.6,29.87,South,190,9.0,12.0,53,0.00,,,0.00,Wunderground v.1.15,2013-06-04 01:33:00,
2013-06-03 20:35:00,70.6,52.6,29.87,SE,138,10.0,12.0,53,0.00,,,0.00,Wunderground v.1.15,2013-06-04 01:35:00,
2013-06-03 20:36:00,70.6,52.6,29.87,SE,131,10.0,13.0,53,0.00,,,0.00,Wunderground v.1.15,2013-06-04 01:36:00,
2013-06-03 20:37:00,70.6,52.6,29.87,SSE,159,10.0,13.0,53,0.00,,,0.00,Wunderground v.1.15,2013-06-04 01:37:00,
2013-06-03 20:42:00,70.3,52.9,29.88,ESE,123,8.0,8.0,54,0.00,,,0.00,Wunderground v.1.15,2013-06-04 01:42:00,
2013-06-03 20:44:00,70.1,52.7,29.88,South,169,8.0,10.0,54,0.00,,,0.00,Wunderground v.1.15,2013-06-04 01:44:00,
2013-06-03 20:45:00,70.0,52.6,29.88,SE,135,7.0,10.0,54,0.00,,,0.00,Wunderground v.1.15,2013-06-04 01:45:00,
2013-06-03 20:46:00,70.0,52.6,29.88,ESE,119,7.0,10.0,54,0.00,,,0.00,Wunderground v.1.15,2013-06-04 01:46:00,
2013-06-03 20:49:00,70.0,52.6,29.88,South,171,8.0,12.0,54,0.00,,,0.00,Wunderground v.1.15,2013-06-04 01:49:00,
2013-06-03 20:50:00,70.0,52.6,29.88,South,176,8.0,10.0,54,0.00,,,0.00,Wunderground v.1.15,2013-06-04 01:50:00,
2013-06-03 20:52:00,69.9,53.0,29.88,SE,129,8.0,10.0,55,0.00,,,0.00,Wunderground v.1.15,2013-06-04 01:52:00,
2013-06-03 20:57:00,69.7,52.8,29.88,SSE,164,8.0,11.0,55,0.00,,,0.00,Wunderground v.1.15,2013-06-04 01:57:00,
2013-06-03 20:58:00,69.7,52.8,29.88,SSE,147,8.0,11.0,55,0.00,,,0.00,Wunderground v.1.15,2013-06-04 01:58:00,
2013-06-03 20:59:00,69.6,52.7,29.88,SE,142,8.0,11.0,55,0.00,,,0.00,Wunderground v.1.15,2013-06-04 01:59:00,
2013-06-03 21:01:00,69.6,52.7,29.88,SSE,157,8.0,12.0,55,0.00,,,0.00,Wunderground v.1.15,2013-06-04 02:01:00,
2013-06-03 21:03:00,69.5,53.1,29.88,SSE,166,8.0,12.0,56,0.00,,,0.00,Wunderground v.1.15,2013-06-04 02:03:00,
2013-06-03 21:05:00,69.5,53.1,29.89,SE,141,8.0,12.0,56,0.00,,,0.00,Wunderground v.1.15,2013-06-04 02:05:00,
2013-06-03 21:08:00,69.4,53.0,29.88,ESE,110,8.0,12.0,56,0.00,,,0.00,Wunderground v.1.15,2013-06-04 02:08:00,
2013-06-03 21:10:00,69.3,52.9,29.88,SSE,157,8.0,8.0,56,0.00,,,0.00,Wunderground v.1.15,2013-06-04 02:10:00,
2013-06-03 21:11:00,69.2,52.8,29.88,SSE,148,8.0,9.0,56,0.00,,,0.00,Wunderground v.1.15,2013-06-04 02:11:00,
2013-06-03 21:12:00,69.2,52.8,29.88,SSE,152,8.0,9.0,56,0.00,,,0.00,Wunderground v.1.15,2013-06-04 02:12:00,
2013-06-03 21:13:00,69.2,52.8,29.88,SSE,150,8.0,9.0,56,0.00,,,0.00,Wunderground v.1.15,2013-06-04 02:13:00,
2013-06-03 21:15:00,69.1,52.7,29.88,ESE,122,8.0,9.0,56,0.00,,,0.00,Wunderground v.1.15,2013-06-04 02:15:00,
2013-06-03 21:17:00,69.0,53.1,29.88,SSE,147,8.0,9.0,57,0.00,,,0.00,Wunderground v.1.15,2013-06-04 02:17:00,
2013-06-03 21:20:00,68.9,53.0,29.88,SE,126,9.0,9.0,57,0.00,,,0.00,Wunderground v.1.15,2013-06-04 02:20:00,
2013-06-03 21:24:00,68.9,53.0,29.88,SE,139,5.0,16.0,57,0.00,,,0.00,weatherlink.com 1.10,2013-06-04 02:24:00,
2013-06-03 21:25:00,68.8,52.9,29.88,South,172,8.0,11.0,57,0.00,,,0.00,Wunderground v.1.15,2013-06-04 02:25:00,
2013-06-03 21:26:00,68.8,52.9,29.88,SE,138,8.0,11.0,57,0.00,,,0.00,Wunderground v.1.15,2013-06-04 02:26:00,
2013-06-03 21:28:00,68.7,52.8,29.88,SSE,160,9.0,11.0,57,0.00,,,0.00,Wunderground v.1.15,2013-06-04 02:28:00,
2013-06-03 21:29:00,68.7,52.8,29.88,SE,138,9.0,11.0,57,0.00,,,0.00,Wunderground v.1.15,2013-06-04 02:29:00,
2013-06-03 21:31:00,68.7,53.3,29.88,South,171,9.0,13.0,58,0.00,,,0.00,Wunderground v.1.15,2013-06-04 02:31:00,
2013-06-03 21:33:00,68.7,53.3,29.89,SE,144,9.0,13.0,58,0.00,,,0.00,Wunderground v.1.15,2013-06-04 02:33:00,
2013-06-03 21:34:00,68.7,53.3,29.89,SSE,160,9.0,13.0,58,0.00,,,0.00,Wunderground v.1.15,2013-06-04 02:34:00,
2013-06-03 21:39:00,68.6,53.2,29.89,SE,130,9.0,13.0,58,0.00,,,0.00,Wunderground v.1.15,2013-06-04 02:39:00,
2013-06-03 21:41:00,68.5,53.1,29.89,South,173,9.0,11.0,58,0.00,,,0.00,Wunderground v.1.15,2013-06-04 02:41:00,
2013-06-03 21:42:00,68.5,53.1,29.89,South,175,8.0,11.0,58,0.00,,,0.00,Wunderground v.1.15,2013-06-04 02:42:00,
2013-06-03 21:45:00,68.3,52.9,29.89,South,175,8.0,11.0,58,0.00,,,0.00,Wunderground v.1.15,2013-06-04 02:45:00,
2013-06-03 21:46:00,68.3,52.9,29.89,SSE,151,8.0,11.0,58,0.00,,,0.00,Wunderground v.1.15,2013-06-04 02:46:00,
2013-06-03 21:49:00,68.2,53.3,29.88,SE,132,8.0,11.0,59,0.00,,,0.00,Wunderground v.1.15,2013-06-04 02:49:00,
2013-06-03 21:50:00,68.2,53.3,29.88,SE,125,8.0,10.0,59,0.00,,,0.00,Wunderground v.1.15,2013-06-04 02:50:00,
2013-06-03 21:51:00,68.1,53.2,29.88,SE,141,8.0,10.0,59,0.00,,,0.00,Wunderground v.1.15,2013-06-04 02:51:00,
2013-06-03 21:52:00,68.0,53.1,29.88,SE,138,8.0,10.0,59,0.00,,,0.00,Wunderground v.1.15,2013-06-04 02:52:00,
2013-06-03 21:56:00,67.9,53.5,29.88,SE,144,8.0,10.0,60,0.00,,,0.00,Wunderground v.1.15,2013-06-04 02:56:00,
2013-06-03 21:58:00,67.7,53.3,29.88,ESE,123,8.0,10.0,60,0.00,,,0.00,Wunderground v.1.15,2013-06-04 02:58:00,
2013-06-03 21:59:00,67.7,53.3,29.88,SE,133,8.0,10.0,60,0.00,,,0.00,Wunderground v.1.15,2013-06-04 02:59:00,
2013-06-03 22:00:00,67.8,53.4,29.88,SE,144,8.0,9.0,60,0.00,,,0.00,Wunderground v.1.15,2013-06-04 03:00:00,
2013-06-03 22:01:00,67.8,53.9,29.88,SE,138,8.0,9.0,61,0.00,,,0.00,Wunderground v.1.15,2013-06-04 03:01:00,
2013-06-03 22:06:00,67.8,53.4,29.88,ESE,120,10.0,13.0,60,0.00,,,0.00,Wunderground v.1.15,2013-06-04 03:06:00,
2013-06-03 22:07:00,67.7,53.3,29.88,SSE,148,9.0,13.0,60,0.00,,,0.00,Wunderground v.1.15,2013-06-04 03:07:00,
2013-06-03 22:08:00,67.7,53.3,29.88,East,99,9.0,13.0,60,0.00,,,0.00,Wunderground v.1.15,2013-06-04 03:08:00,
2013-06-03 22:11:00,67.6,53.2,29.88,South,171,9.0,9.0,60,0.00,,,0.00,Wunderground v.1.15,2013-06-04 03:11:00,
2013-06-03 22:12:00,67.6,53.2,29.88,SE,140,9.0,12.0,60,0.00,,,0.00,Wunderground v.1.15,2013-06-04 03:12:00,
2013-06-03 22:13:00,67.6,53.2,29.88,SSE,157,9.0,14.0,60,0.00,,,0.00,Wunderground v.1.15,2013-06-04 03:13:00,
2013-06-03 22:14:00,67.7,53.3,29.88,SSE,162,10.0,14.0,60,0.00,,,0.00,Wunderground v.1.15,2013-06-04 03:14:00,
2013-06-03 22:16:00,67.6,53.7,29.88,ESE,108,9.0,14.0,61,0.00,,,0.00,Wunderground v.1.15,2013-06-04 03:16:00,
2013-06-03 22:17:00,67.6,53.2,29.88,SE,146,9.0,14.0,60,0.00,,,0.00,Wunderground v.1.15,2013-06-04 03:17:00,
2013-06-03 22:20:00,67.4,53.5,29.88,ESE,120,9.0,12.0,61,0.00,,,0.00,Wunderground v.1.15,2013-06-04 03:20:00,
2013-06-03 22:22:00,67.3,53.4,29.88,SSE,166,9.0,12.0,61,0.00,,,0.00,Wunderground v.1.15,2013-06-04 03:22:00,
2013-06-03 22:23:00,67.3,53.8,29.88,SE,132,9.0,12.0,62,0.00,,,0.00,Wunderground v.1.15,2013-06-04 03:23:00,
2013-06-03 22:26:00,67.2,53.7,29.89,ESE,112,8.0,12.0,62,0.00,,,0.00,Wunderground v.1.15,2013-06-04 03:26:00,
2013-06-03 22:27:00,67.1,53.6,29.89,SE,129,8.0,12.0,62,0.00,,,0.00,Wunderground v.1.15,2013-06-04 03:27:00,
2013-06-03 22:28:00,67.1,53.6,29.89,ESE,111,9.0,12.0,62,0.00,,,0.00,Wunderground v.1.15,2013-06-04 03:28:00,
2013-06-03 22:31:00,67.0,54.0,29.88,SE,145,9.0,9.0,63,0.00,,,0.00,Wunderground v.1.15,2013-06-04 03:31:00,
2013-06-03 22:34:00,66.9,53.9,29.89,ESE,109,9.0,13.0,63,0.00,,,0.00,Wunderground v.1.15,2013-06-04 03:34:00,
2013-06-03 22:36:00,66.9,54.3,29.89,ESE,121,9.0,13.0,64,0.00,,,0.00,Wunderground v.1.15,2013-06-04 03:36:00,
2013-06-03 22:37:00,66.8,54.2,29.89,SSE,165,9.0,13.0,64,0.00,,,0.00,Wunderground v.1.15,2013-06-04 03:37:00,
2013-06-03 22:38:00,66.8,54.2,29.89,SE,132,9.0,13.0,64,0.00,,,0.00,Wunderground v.1.15,2013-06-04 03:38:00,
2013-06-03 22:39:00,66.8,54.2,29.89,SSE,148,9.0,13.0,64,0.00,,,0.00,Wunderground v.1.15,2013-06-04 03:39:00,
2013-06-03 22:41:00,66.7,54.1,29.89,South,171,8.0,8.0,64,0.00,,,0.00,Wunderground v.1.15,2013-06-04 03:41:00,
2013-06-03 22:42:00,66.6,54.5,29.89,ESE,117,8.0,8.0,65,0.00,,,0.00,Wunderground v.1.15,2013-06-04 03:42:00,
2013-06-03 22:45:00,66.6,54.5,29.89,SSE,167,8.0,9.0,65,0.00,,,0.00,Wunderground v.1.15,2013-06-04 03:45:00,
2013-06-03 22:47:00,66.5,54.4,29.89,SSE,167,7.0,11.0,65,0.00,,,0.00,Wunderground v.1.15,2013-06-04 03:47:00,
2013-06-03 22:48:00,66.5,54.4,29.89,SE,136,7.0,11.0,65,0.00,,,0.00,Wunderground v.1.15,2013-06-04 03:48:00,
2013-06-03 22:51:00,66.4,54.3,29.89,ESE,122,7.0,10.0,65,0.00,,,0.00,Wunderground v.1.15,2013-06-04 03:51:00,
2013-06-03 22:53:00,66.4,54.3,29.89,SE,144,8.0,10.0,65,0.00,,,0.00,Wunderground v.1.15,2013-06-04 03:53:00,
2013-06-03 22:54:00,66.4,54.3,29.89,ESE,111,8.0,12.0,65,0.00,,,0.00,Wunderground v.1.15,2013-06-04 03:54:00,
2013-06-03 22:57:00,66.4,54.3,29.89,SE,140,9.0,12.0,65,0.00,,,0.00,Wunderground v.1.15,2013-06-04 03:57:00,
2013-06-03 22:59:00,66.4,54.3,29.89,SSE,150,9.0,12.0,65,0.00,,,0.00,Wunderground v.1.15,2013-06-04 03:59:00,
2013-06-03 23:00:00,66.4,54.3,29.89,ESE,115,9.0,11.0,65,0.00,,,0.00,Wunderground v.1.15,2013-06-04 04:00:00,
2013-06-03 23:01:00,66.3,54.6,29.89,SSE,151,9.0,11.0,66,0.00,,,0.00,Wunderground v.1.15,2013-06-04 04:01:00,
2013-06-03 23:03:00,66.3,54.6,29.89,SSE,147,9.0,12.0,66,0.00,,,0.00,Wunderground v.1.15,2013-06-04 04:03:00,
2013-06-03 23:04:00,66.2,54.5,29.89,SSW,194,9.0,12.0,66,0.00,,,0.00,Wunderground v.1.15,2013-06-04 04:04:00,
2013-06-03 23:08:00,66.1,54.4,29.89,ESE,120,8.0,12.0,66,0.00,,,0.00,Wunderground v.1.15,2013-06-04 04:08:00,
2013-06-03 23:10:00,66.0,54.0,29.89,SE,130,8.0,17.0,66,0.00,,,0.00,weatherlink.com 1.10,2013-06-04 04:10:00,
2013-06-03 23:13:00,65.9,54.6,29.89,SE,138,8.0,8.0,67,0.00,,,0.00,Wunderground v.1.15,2013-06-04 04:13:00,
2013-06-03 23:14:00,65.9,54.6,29.89,SE,139,8.0,13.0,67,0.00,,,0.00,Wunderground v.1.15,2013-06-04 04:14:00,
2013-06-03 23:15:00,65.9,54.6,29.89,SSE,152,8.0,13.0,67,0.00,,,0.00,Wunderground v.1.15,2013-06-04 04:15:00,
2013-06-03 23:18:00,66.0,54.3,29.89,South,176,9.0,13.0,66,0.00,,,0.00,Wunderground v.1.15,2013-06-04 04:18:00,
2013-06-03 23:19:00,66.0,54.3,29.89,SE,140,9.0,13.0,66,0.00,,,0.00,Wunderground v.1.15,2013-06-04 04:19:00,
2013-06-03 23:20:00,66.0,54.7,29.89,SE,133,9.0,10.0,67,0.00,,,0.00,Wunderground v.1.15,2013-06-04 04:20:00,
2013-06-03 23:21:00,65.9,54.6,29.89,SE,136,9.0,10.0,67,0.00,,,0.00,Wunderground v.1.15,2013-06-04 04:21:00,
2013-06-03 23:24:00,65.8,54.0,29.89,SE,143,8.0,17.0,67,0.00,,,0.00,weatherlink.com 1.10,2013-06-04 04:24:00,
2013-06-03 23:25:00,65.8,54.5,29.89,SE,141,9.0,10.0,67,0.00,,,0.00,Wunderground v.1.15,2013-06-04 04:25:00,
2013-06-03 23:26:00,65.8,54.5,29.89,SE,141,8.0,10.0,67,0.00,,,0.00,Wunderground v.1.15,2013-06-04 04:26:00,
2013-06-03 23:29:00,65.7,54.4,29.89,SE,138,8.0,10.0,67,0.00,,,0.00,Wunderground v.1.15,2013-06-04 04:29:00,
2013-06-03 23:31:00,65.6,54.3,29.90,SE,145,8.0,8.0,67,0.00,,,0.00,Wunderground v.1.15,2013-06-04 04:31:00,
2013-06-03 23:32:00,65.5,54.2,29.90,SSE,148,8.0,8.0,67,0.00,,,0.00,Wunderground v.1.15,2013-06-04 04:32:00,
2013-06-03 23:34:00,65.5,54.2,29.90,SE,130,7.0,8.0,67,0.00,,,0.00,Wunderground v.1.15,2013-06-04 04:34:00,
2013-06-03 23:36:00,65.4,54.6,29.90,SSE,148,7.0,8.0,68,0.00,,,0.00,Wunderground v.1.15,2013-06-04 04:36:00,
2013-06-03 23:39:00,65.4,55.0,29.90,SE,126,12.0,14.0,68,0.00,,,0.00,weatherlink.com 1.10,2013-06-04 04:39:00,
2013-06-03 23:40:00,65.3,54.5,29.90,ESE,121,7.0,7.0,68,0.00,,,0.00,Wunderground v.1.15,2013-06-04 04:40:00,
2013-06-03 23:41:00,65.3,54.5,29.90,SE,137,7.0,7.0,68,0.00,,,0.00,Wunderground v.1.15,2013-06-04 04:41:00,
2013-06-03 23:42:00,65.3,54.5,29.90,SE,134,7.0,8.0,68,0.00,,,0.00,Wunderground v.1.15,2013-06-04 04:42:00,
2013-06-03 23:46:00,65.3,54.5,29.91,SE,144,7.0,10.0,68,0.00,,,0.00,Wunderground v.1.15,2013-06-04 04:46:00,
2013-06-03 23:47:00,65.2,54.4,29.91,SSE,164,7.0,10.0,68,0.00,,,0.00,Wunderground v.1.15,2013-06-04 04:47:00,
2013-06-03 23:49:00,65.2,54.4,29.91,SSE,152,7.0,10.0,68,0.00,,,0.00,Wunderground v.1.15,2013-06-04 04:49:00,
2013-06-03 23:52:00,65.2,54.4,29.91,SE,140,7.0,8.0,68,0.00,,,0.00,Wunderground v.1.15,2013-06-04 04:52:00,
2013-06-03 23:54:00,65.1,54.3,29.91,SSE,159,7.0,8.0,68,0.00,,,0.00,Wunderground v.1.15,2013-06-04 04:54:00,
2013-06-03 23:58:00,65.1,54.3,29.92,SSE,167,8.0,8.0,68,0.00,,,0.00,Wunderground v.1.15,2013-06-04 04:58:00,